Wetterdaten: Dienstag, 01.11.2022
Datum Zeit Temp. Aussen Temp. o. S. Temp +5cm Feuchte Auss Luftdruck Regen Sonnenschein Regendauer Solar Windben Empfang
01.11.2022 00:00 15,2 C 14,4 C 11,1 C 83 % 1011,4 hPa 0,0 l/m 0 min 0 min 0 W/m 9,7 km/h (2 Bft) 97,87 %
01.11.2022 00:02 15,2 C 14,4 C 11,1 C 83 % 1011,3 hPa 0,0 l/m 0 min 0 min 0 W/m 12,9 km/h (3 Bft) 100,00 %
01.11.2022 00:04 15,3 C 14,4 C 11,1 C 83 % 1011,4 hPa 0,0 l/m 0 min 0 min 0 W/m 16,1 km/h (3 Bft) 95,74 %
01.11.2022 00:08 15,3 C 14,4 C 11,1 C 83 % 1011,3 hPa 0,0 l/m 0 min 0 min 0 W/m 19,3 km/h (3 Bft) 96,77 %
01.11.2022 00:10 15,3 C 14,4 C 11,1 C 83 % 1011,3 hPa 0,0 l/m 0 min 0 min 0 W/m 16,1 km/h (3 Bft) 97,87 %
01.11.2022 00:12 15,4 C 14,4 C 11,1 C 83 % 1011,3 hPa 0,0 l/m 0 min 0 min 0 W/m 16,1 km/h (3 Bft) 95,74 %
01.11.2022 00:14 15,4 C 14,4 C 11,1 C 83 % 1011,3 hPa 0,0 l/m 0 min 0 min 0 W/m 19,3 km/h (3 Bft) 95,74 %
01.11.2022 00:16 15,4 C 14,4 C 11,1 C 83 % 1011,3 hPa 0,0 l/m 0 min 0 min 0 W/m 19,3 km/h (3 Bft) 95,74 %
01.11.2022 00:18 15,4 C 14,4 C 11,1 C 83 % 1011,2 hPa 0,0 l/m 0 min 0 min 0 W/m 19,3 km/h (3 Bft) 95,74 %
01.11.2022 00:20 15,4 C 14,4 C 11,1 C 83 % 1011,3 hPa 0,0 l/m 0 min 0 min 0 W/m 16,1 km/h (3 Bft) 95,65 %
01.11.2022 00:22 15,4 C 14,4 C 11,1 C 83 % 1011,2 hPa 0,0 l/m 0 min 0 min 0 W/m 12,9 km/h (3 Bft) 93,62 %
01.11.2022 00:24 15,4 C 14,4 C 10,6 C 83 % 1011,2 hPa 0,0 l/m 0 min 0 min 0 W/m 6,4 km/h (2 Bft) 93,62 %
01.11.2022 00:26 15,3 C 14,4 C 10,6 C 84 % 1011,2 hPa 0,0 l/m 0 min 0 min 0 W/m 9,7 km/h (2 Bft) 95,74 %
01.11.2022 00:28 15,3 C 14,4 C 10,6 C 84 % 1011,2 hPa 0,0 l/m 0 min 2 min 0 W/m 12,9 km/h (3 Bft) 93,62 %
01.11.2022 00:30 15,3 C 14,4 C 10,6 C 84 % 1011,2 hPa 0,0 l/m 0 min 0 min 0 W/m 16,1 km/h (3 Bft) 95,74 %
01.11.2022 00:32 15,3 C 14,4 C 10,6 C 84 % 1011,1 hPa 0,0 l/m 0 min 2 min 0 W/m 12,9 km/h (3 Bft) 95,65 %
01.11.2022 00:34 15,3 C 14,4 C 10,6 C 84 % 1011,1 hPa 0,0 l/m 0 min 0 min 0 W/m 16,1 km/h (3 Bft) 95,74 %
01.11.2022 00:36 15,3 C 14,4 C 10,6 C 85 % 1011,1 hPa 0,0 l/m 0 min 0 min 0 W/m 12,9 km/h (3 Bft) 95,74 %
01.11.2022 00:38 15,3 C 14,4 C 10,6 C 85 % 1011,1 hPa 0,0 l/m 0 min 2 min 0 W/m 6,4 km/h (2 Bft) 95,74 %
01.11.2022 00:40 15,3 C 14,4 C 10,6 C 85 % 1011,1 hPa 0,0 l/m 0 min 0 min 0 W/m 6,4 km/h (2 Bft) 95,74 %
01.11.2022 00:42 15,2 C 14,4 C 10,6 C 85 % 1011,2 hPa 0,0 l/m 0 min 2 min 0 W/m 12,9 km/h (3 Bft) 97,83 %
01.11.2022 00:44 15,2 C 14,4 C 10,6 C 85 % 1011,2 hPa 0,0 l/m 0 min 2 min 0 W/m 6,4 km/h (2 Bft) 97,87 %
01.11.2022 00:46 15,2 C 14,4 C 10,6 C 85 % 1011,1 hPa 0,0 l/m 0 min 2 min 0 W/m 6,4 km/h (2 Bft) 93,62 %
01.11.2022 00:48 15,2 C 14,4 C 10,6 C 85 % 1011,1 hPa 0,0 l/m 0 min 0 min 0 W/m 12,9 km/h (3 Bft) 97,87 %
01.11.2022 00:50 15,2 C 14,4 C 10,6 C 85 % 1011,1 hPa 0,0 l/m 0 min 0 min 0 W/m 16,1 km/h (3 Bft) 97,87 %
01.11.2022 00:52 15,2 C 14,4 C 10,0 C 85 % 1011,1 hPa 0,0 l/m 0 min 2 min 0 W/m 16,1 km/h (3 Bft) 97,87 %
01.11.2022 00:54 15,2 C 14,4 C 10,0 C 86 % 1011,1 hPa 0,0 l/m 0 min 2 min 0 W/m 6,4 km/h (2 Bft) 97,87 %
01.11.2022 00:56 15,1 C 13,9 C 9,4 C 86 % 1011,1 hPa 0,0 l/m 0 min 2 min 0 W/m 6,4 km/h (2 Bft) 97,83 %
01.11.2022 00:58 15,1 C 13,9 C 9,4 C 86 % 1011,0 hPa 0,0 l/m 0 min 2 min 0 W/m 6,4 km/h (2 Bft) 100,00 %
01.11.2022 01:00 15,1 C 13,9 C 9,4 C 86 % 1011,0 hPa 0,0 l/m 0 min 2 min 0 W/m 6,4 km/h (2 Bft) 97,87 %
01.11.2022 01:02 15,1 C 13,9 C 9,4 C 87 % 1011,0 hPa 0,0 l/m 0 min 2 min 0 W/m 3,2 km/h (1 Bft) 97,87 %
01.11.2022 01:04 15,1 C 13,9 C 9,4 C 87 % 1010,9 hPa 0,0 l/m 0 min 0 min 0 W/m 6,4 km/h (2 Bft) 100,00 %
01.11.2022 01:06 15,1 C 13,9 C 9,4 C 87 % 1010,8 hPa 0,0 l/m 0 min 0 min 0 W/m 6,4 km/h (2 Bft) 97,83 %
01.11.2022 01:08 15,1 C 13,9 C 9,4 C 87 % 1010,8 hPa 0,0 l/m 0 min 0 min 0 W/m 19,3 km/h (3 Bft) 97,87 %
01.11.2022 01:10 15,0 C 13,9 C 9,4 C 87 % 1010,8 hPa 0,0 l/m 0 min 0 min 0 W/m 6,4 km/h (2 Bft) 100,00 %
01.11.2022 01:12 15,0 C 13,9 C 9,4 C 87 % 1010,8 hPa 0,0 l/m 0 min 0 min 0 W/m 6,4 km/h (2 Bft) 100,00 %
01.11.2022 01:14 14,9 C 13,9 C 9,4 C 88 % 1010,8 hPa 0,0 l/m 0 min 0 min 0 W/m 6,4 km/h (2 Bft) 97,87 %
01.11.2022 01:16 14,9 C 13,9 C 9,4 C 88 % 1010,7 hPa 0,0 l/m 0 min 0 min 0 W/m 6,4 km/h (2 Bft) 100,00 %
01.11.2022 01:18 14,9 C 13,9 C 9,4 C 88 % 1010,7 hPa 0,0 l/m 0 min 0 min 0 W/m 6,4 km/h (2 Bft) 97,83 %
01.11.2022 01:20 14,9 C 13,9 C 9,4 C 88 % 1010,7 hPa 0,0 l/m 0 min 0 min 0 W/m 16,1 km/h (3 Bft) 100,00 %
01.11.2022 01:22 14,9 C 13,9 C 10,0 C 88 % 1010,6 hPa 0,0 l/m 0 min 0 min 0 W/m 6,4 km/h (2 Bft) 100,00 %
01.11.2022 01:24 14,9 C 13,9 C 10,0 C 88 % 1010,6 hPa 0,0 l/m 0 min 0 min 0 W/m 6,4 km/h (2 Bft) 100,00 %
01.11.2022 01:26 14,9 C 13,9 C 10,0 C 88 % 1010,5 hPa 0,0 l/m 0 min 0 min 0 W/m 6,4 km/h (2 Bft) 100,00 %
01.11.2022 01:28 14,9 C 14,4 C 10,0 C 88 % 1010,6 hPa 0,0 l/m 0 min 0 min 0 W/m 6,4 km/h (2 Bft) 100,00 %
01.11.2022 01:30 14,9 C 14,4 C 10,0 C 89 % 1010,6 hPa 0,0 l/m 0 min 0 min 0 W/m 9,7 km/h (2 Bft) 100,00 %
01.11.2022 01:32 14,9 C 14,4 C 10,6 C 89 % 1010,5 hPa 0,0 l/m 0 min 0 min 0 W/m 6,4 km/h (2 Bft) 100,00 %
01.11.2022 01:34 14,9 C 14,4 C 10,6 C 89 % 1010,5 hPa 0,0 l/m 0 min 0 min 0 W/m 6,4 km/h (2 Bft) 100,00 %
01.11.2022 01:36 15,0 C 14,4 C 10,6 C 89 % 1010,5 hPa 0,0 l/m 0 min 0 min 0 W/m 9,7 km/h (2 Bft) 100,00 %
01.11.2022 01:38 15,0 C 14,4 C 10,6 C 89 % 1010,4 hPa 0,0 l/m 0 min 0 min 0 W/m 6,4 km/h (2 Bft) 100,00 %
01.11.2022 01:40 15,0 C 14,4 C 10,6 C 89 % 1010,4 hPa 0,0 l/m 0 min 0 min 0 W/m 16,1 km/h (3 Bft) 100,00 %
01.11.2022 01:42 15,1 C 14,4 C 10,6 C 89 % 1010,4 hPa 0,0 l/m 0 min 0 min 0 W/m 6,4 km/h (2 Bft) 100,00 %
01.11.2022 01:44 15,1 C 14,4 C 10,6 C 89 % 1010,4 hPa 0,0 l/m 0 min 0 min 0 W/m 12,9 km/h (3 Bft) 100,00 %
01.11.2022 01:46 15,1 C 14,4 C 10,6 C 89 % 1010,4 hPa 0,0 l/m 0 min 0 min 0 W/m 19,3 km/h (3 Bft) 100,00 %
01.11.2022 01:48 15,1 C 14,4 C 10,6 C 89 % 1010,4 hPa 0,0 l/m 0 min 0 min 0 W/m 12,9 km/h (3 Bft) 100,00 %
01.11.2022 01:50 15,1 C 14,4 C 10,6 C 89 % 1010,4 hPa 0,0 l/m 0 min 0 min 0 W/m 12,9 km/h (3 Bft) 100,00 %
01.11.2022 01:52 15,1 C 14,4 C 10,6 C 88 % 1010,3 hPa 0,0 l/m 0 min 0 min 0 W/m 12,9 km/h (3 Bft) 97,87 %
01.11.2022 01:54 15,1 C 14,4 C 10,6 C 88 % 1010,3 hPa 0,0 l/m 0 min 0 min 0 W/m 3,2 km/h (1 Bft) 100,00 %
01.11.2022 01:56 15,1 C 14,4 C 10,6 C 88 % 1010,2 hPa 0,0 l/m 0 min 0 min 0 W/m 6,4 km/h (2 Bft) 100,00 %
01.11.2022 01:58 15,1 C 14,4 C 10,6 C 88 % 1010,2 hPa 0,0 l/m 0 min 0 min 0 W/m 6,4 km/h (2 Bft) 100,00 %
01.11.2022 02:00 15,2 C 14,4 C 10,6 C 88 % 1010,2 hPa 0,0 l/m 0 min 0 min 0 W/m 12,9 km/h (3 Bft) 97,87 %
01.11.2022 02:02 15,2 C 14,4 C 10,6 C 88 % 1010,2 hPa 0,0 l/m 0 min 0 min 0 W/m 6,4 km/h (2 Bft) 95,74 %
01.11.2022 02:04 15,2 C 14,4 C 10,6 C 88 % 1010,2 hPa 0,0 l/m 0 min 0 min 0 W/m 6,4 km/h (2 Bft) 97,87 %
01.11.2022 02:06 15,2 C 14,4 C 10,6 C 88 % 1010,3 hPa 0,0 l/m 0 min 0 min 0 W/m 6,4 km/h (2 Bft) 95,65 %
01.11.2022 02:08 15,2 C 14,4 C 10,6 C 88 % 1010,3 hPa 0,0 l/m 0 min 0 min 0 W/m 6,4 km/h (2 Bft) 95,74 %
01.11.2022 02:10 15,2 C 14,4 C 11,1 C 88 % 1010,2 hPa 0,0 l/m 0 min 0 min 0 W/m 6,4 km/h (2 Bft) 95,74 %
01.11.2022 02:17 15,2 C 14,4 C 11,1 C 88 % 1010,3 hPa 0,0 l/m 0 min 0 min 0 W/m 6,4 km/h (2 Bft) 98,57 %
01.11.2022 02:18 15,2 C 14,4 C 11,1 C 88 % 1010,3 hPa 0,0 l/m 0 min 0 min 0 W/m 3,2 km/h (1 Bft) 100,00 %
01.11.2022 02:20 15,2 C 14,4 C 11,1 C 88 % 1010,3 hPa 0,0 l/m 0 min 0 min 0 W/m 3,2 km/h (1 Bft) 95,65 %
01.11.2022 02:22 15,2 C 14,4 C 11,1 C 88 % 1010,3 hPa 0,0 l/m 0 min 0 min 0 W/m 6,4 km/h (2 Bft) 95,74 %
01.11.2022 02:24 15,2 C 14,4 C 11,1 C 88 % 1010,3 hPa 0,0 l/m 0 min 0 min 0 W/m 6,4 km/h (2 Bft) 93,62 %
01.11.2022 02:26 15,3 C 14,4 C 11,1 C 88 % 1010,3 hPa 0,0 l/m 0 min 0 min 0 W/m 6,4 km/h (2 Bft) 95,74 %
01.11.2022 02:28 15,3 C 14,4 C 11,1 C 88 % 1010,4 hPa 0,0 l/m 0 min 0 min 0 W/m 12,9 km/h (3 Bft) 93,62 %
01.11.2022 02:30 15,3 C 14,4 C 11,1 C 88 % 1010,4 hPa 0,0 l/m 0 min 0 min 0 W/m 6,4 km/h (2 Bft) 95,65 %
01.11.2022 02:32 15,2 C 14,4 C 11,1 C 88 % 1010,4 hPa 0,0 l/m 0 min 0 min 0 W/m 6,4 km/h (2 Bft) 97,87 %
01.11.2022 02:34 15,2 C 14,4 C 10,6 C 88 % 1010,4 hPa 0,0 l/m 0 min 0 min 0 W/m 12,9 km/h (3 Bft) 97,87 %
01.11.2022 02:36 15,2 C 14,4 C 10,6 C 88 % 1010,3 hPa 0,0 l/m 0 min 0 min 0 W/m 6,4 km/h (2 Bft) 97,87 %
01.11.2022 02:38 15,2 C 14,4 C 10,6 C 88 % 1010,3 hPa 0,0 l/m 0 min 0 min 0 W/m 12,9 km/h (3 Bft) 97,87 %
01.11.2022 02:40 15,2 C 14,4 C 10,6 C 88 % 1010,4 hPa 0,0 l/m 0 min 0 min 0 W/m 6,4 km/h (2 Bft) 97,87 %
01.11.2022 02:42 15,2 C 14,4 C 10,6 C 88 % 1010,4 hPa 0,0 l/m 0 min 0 min 0 W/m 12,9 km/h (3 Bft) 97,83 %
01.11.2022 02:44 15,2 C 14,4 C 10,6 C 88 % 1010,4 hPa 0,0 l/m 0 min 0 min 0 W/m 6,4 km/h (2 Bft) 97,87 %
01.11.2022 02:46 15,2 C 14,4 C 10,6 C 88 % 1010,4 hPa 0,0 l/m 0 min 0 min 0 W/m 6,4 km/h (2 Bft) 97,87 %
01.11.2022 02:48 15,2 C 14,4 C 10,6 C 88 % 1010,4 hPa 0,0 l/m 0 min 0 min 0 W/m 6,4 km/h (2 Bft) 97,87 %
01.11.2022 02:50 15,2 C 14,4 C 10,6 C 88 % 1010,4 hPa 0,0 l/m 0 min 0 min 0 W/m 6,4 km/h (2 Bft) 97,87 %
01.11.2022 02:52 15,2 C 14,4 C 10,6 C 88 % 1010,4 hPa 0,0 l/m 0 min 0 min 0 W/m 12,9 km/h (3 Bft) 95,74 %
01.11.2022 02:54 15,2 C 14,4 C 10,6 C 88 % 1010,4 hPa 0,0 l/m 0 min 0 min 0 W/m 3,2 km/h (1 Bft) 97,83 %
01.11.2022 02:56 15,2 C 14,4 C 11,1 C 88 % 1010,4 hPa 0,0 l/m 0 min 0 min 0 W/m 3,2 km/h (1 Bft) 100,00 %
01.11.2022 02:58 15,2 C 14,4 C 11,1 C 88 % 1010,4 hPa 0,0 l/m 0 min 0 min 0 W/m 6,4 km/h (2 Bft) 100,00 %
01.11.2022 03:00 15,2 C 14,4 C 11,1 C 88 % 1010,4 hPa 0,0 l/m 0 min 0 min 0 W/m 6,4 km/h (2 Bft) 97,87 %
01.11.2022 03:02 15,2 C 14,4 C 11,1 C 88 % 1010,3 hPa 0,0 l/m 0 min 0 min 0 W/m 6,4 km/h (2 Bft) 100,00 %
01.11.2022 03:04 15,2 C 14,4 C 11,1 C 88 % 1010,3 hPa 0,0 l/m 0 min 0 min 0 W/m 6,4 km/h (2 Bft) 100,00 %
01.11.2022 03:06 15,2 C 14,4 C 11,1 C 88 % 1010,2 hPa 0,0 l/m 0 min 0 min 0 W/m 6,4 km/h (2 Bft) 97,87 %
01.11.2022 03:08 15,3 C 14,4 C 11,1 C 88 % 1010,2 hPa 0,0 l/m 0 min 0 min 0 W/m 6,4 km/h (2 Bft) 95,65 %
01.11.2022 03:10 15,3 C 14,4 C 11,1 C 88 % 1010,3 hPa 0,0 l/m 0 min 0 min 0 W/m 6,4 km/h (2 Bft) 97,87 %
01.11.2022 03:12 15,3 C 14,4 C 11,1 C 88 % 1010,2 hPa 0,0 l/m 0 min 0 min 0 W/m 6,4 km/h (2 Bft) 97,87 %
01.11.2022 03:14 15,3 C 14,4 C 11,1 C 88 % 1010,2 hPa 0,0 l/m 0 min 0 min 0 W/m 6,4 km/h (2 Bft) 97,87 %
01.11.2022 03:16 15,3 C 15,0 C 11,1 C 88 % 1010,2 hPa 0,0 l/m 0 min 0 min 0 W/m 6,4 km/h (2 Bft) 95,74 %
01.11.2022 03:18 15,4 C 15,0 C 11,1 C 89 % 1010,2 hPa 0,0 l/m 0 min 0 min 0 W/m 12,9 km/h (3 Bft) 95,65 %
01.11.2022 03:20 15,4 C 15,0 C 11,1 C 89 % 1010,2 hPa 0,0 l/m 0 min 0 min 0 W/m 6,4 km/h (2 Bft) 97,87 %
01.11.2022 03:22 15,4 C 15,0 C 11,1 C 88 % 1010,3 hPa 0,0 l/m 0 min 0 min 0 W/m 6,4 km/h (2 Bft) 97,87 %
01.11.2022 03:24 15,4 C 15,0 C 11,1 C 88 % 1010,3 hPa 0,0 l/m 0 min 0 min 0 W/m 6,4 km/h (2 Bft) 93,62 %
01.11.2022 03:26 15,5 C 15,0 C 11,1 C 88 % 1010,2 hPa 0,0 l/m 0 min 0 min 0 W/m 19,3 km/h (3 Bft) 97,87 %
01.11.2022 03:28 15,5 C 15,0 C 11,1 C 88 % 1010,1 hPa 0,0 l/m 0 min 0 min 0 W/m 12,9 km/h (3 Bft) 97,87 %
01.11.2022 03:30 15,6 C 15,0 C 11,1 C 88 % 1010,2 hPa 0,0 l/m 0 min 0 min 0 W/m 19,3 km/h (3 Bft) 95,65 %
01.11.2022 03:32 15,6 C 15,0 C 11,1 C 88 % 1010,1 hPa 0,0 l/m 0 min 0 min 0 W/m 6,4 km/h (2 Bft) 97,87 %
01.11.2022 03:34 15,6 C 15,0 C 11,1 C 88 % 1010,1 hPa 0,0 l/m 0 min 0 min 0 W/m 6,4 km/h (2 Bft) 95,74 %
01.11.2022 03:36 15,6 C 15,0 C 11,1 C 88 % 1010,1 hPa 0,0 l/m 0 min 0 min 0 W/m 3,2 km/h (1 Bft) 95,74 %
01.11.2022 03:38 15,7 C 15,0 C 11,1 C 88 % 1010,1 hPa 0,0 l/m 0 min 0 min 0 W/m 6,4 km/h (2 Bft) 97,87 %
01.11.2022 03:40 15,7 C 15,0 C 11,1 C 88 % 1010,0 hPa 0,0 l/m 0 min 0 min 0 W/m 6,4 km/h (2 Bft) 97,87 %
01.11.2022 03:42 15,7 C 15,0 C 11,1 C 88 % 1010,0 hPa 0,0 l/m 0 min 0 min 0 W/m 6,4 km/h (2 Bft) 95,65 %
01.11.2022 03:44 15,7 C 15,0 C 11,1 C 88 % 1010,1 hPa 0,0 l/m 0 min 0 min 0 W/m 12,9 km/h (3 Bft) 95,74 %
01.11.2022 03:46 15,7 C 15,0 C 11,1 C 88 % 1010,1 hPa 0,0 l/m 0 min 0 min 0 W/m 12,9 km/h (3 Bft) 97,87 %
01.11.2022 03:48 15,7 C 15,0 C 11,1 C 88 % 1010,1 hPa 0,0 l/m 0 min 0 min 0 W/m 6,4 km/h (2 Bft) 95,74 %
01.11.2022 03:50 15,8 C 15,0 C 11,1 C 88 % 1010,1 hPa 0,0 l/m 0 min 0 min 0 W/m 6,4 km/h (2 Bft) 97,87 %
01.11.2022 03:52 15,8 C 15,0 C 11,1 C 88 % 1010,2 hPa 0,0 l/m 0 min 0 min 0 W/m 6,4 km/h (2 Bft) 97,87 %
01.11.2022 03:54 15,8 C 15,0 C 11,1 C 88 % 1010,1 hPa 0,0 l/m 0 min 0 min 0 W/m 12,9 km/h (3 Bft) 91,30 %
01.11.2022 03:56 15,8 C 15,0 C 11,1 C 88 % 1010,1 hPa 0,0 l/m 0 min 0 min 0 W/m 12,9 km/h (3 Bft) 97,87 %
01.11.2022 03:58 15,9 C 15,0 C 11,1 C 88 % 1010,1 hPa 0,0 l/m 0 min 0 min 0 W/m 12,9 km/h (3 Bft) 97,87 %
01.11.2022 04:00 15,9 C 15,0 C 11,1 C 88 % 1010,1 hPa 0,0 l/m 0 min 0 min 0 W/m 19,3 km/h (3 Bft) 95,74 %
01.11.2022 04:02 16,0 C 15,0 C 11,1 C 88 % 1010,1 hPa 0,0 l/m 0 min 0 min 0 W/m 12,9 km/h (3 Bft) 97,87 %
01.11.2022 04:04 16,1 C 15,6 C 11,7 C 88 % 1010,1 hPa 0,0 l/m 0 min 0 min 0 W/m 19,3 km/h (3 Bft) 97,87 %
01.11.2022 04:06 16,1 C 15,6 C 11,7 C 88 % 1010,1 hPa 0,0 l/m 0 min 0 min 0 W/m 22,5 km/h (4 Bft) 93,62 %
01.11.2022 04:08 16,2 C 15,6 C 11,7 C 88 % 1010,1 hPa 0,0 l/m 0 min 0 min 0 W/m 25,7 km/h (4 Bft) 95,65 %
01.11.2022 04:10 16,2 C 15,6 C 11,7 C 88 % 1010,1 hPa 0,0 l/m 0 min 0 min 0 W/m 16,1 km/h (3 Bft) 55,56 %
01.11.2022 04:12 16,3 C 15,6 C 11,7 C 88 % 1010,1 hPa 0,0 l/m 0 min 0 min 0 W/m 22,5 km/h (4 Bft) 95,74 %
01.11.2022 04:14 16,4 C 15,6 C 11,7 C 88 % 1010,1 hPa 0,0 l/m 0 min 0 min 0 W/m 22,5 km/h (4 Bft) 97,87 %
01.11.2022 04:16 16,4 C 15,6 C 11,7 C 87 % 1010,2 hPa 0,0 l/m 0 min 0 min 0 W/m 29,0 km/h (5 Bft) 97,87 %
01.11.2022 04:18 16,5 C 15,6 C 11,7 C 87 % 1010,2 hPa 0,0 l/m 0 min 0 min 0 W/m 25,7 km/h (4 Bft) 95,65 %
01.11.2022 04:20 16,6 C 15,6 C 12,2 C 87 % 1010,3 hPa 0,0 l/m 0 min 0 min 0 W/m 29,0 km/h (5 Bft) 97,87 %
01.11.2022 04:22 16,6 C 15,6 C 12,2 C 87 % 1010,3 hPa 0,0 l/m 0 min 0 min 0 W/m 25,7 km/h (4 Bft) 97,87 %
01.11.2022 04:24 16,6 C 16,1 C 12,2 C 87 % 1010,3 hPa 0,0 l/m 0 min 0 min 0 W/m 29,0 km/h (5 Bft) 97,87 %
01.11.2022 04:26 16,6 C 16,1 C 12,2 C 87 % 1010,3 hPa 0,0 l/m 0 min 0 min 0 W/m 29,0 km/h (5 Bft) 97,87 %
01.11.2022 04:28 16,7 C 16,1 C 12,2 C 86 % 1010,3 hPa 0,0 l/m 0 min 0 min 0 W/m 38,6 km/h (5 Bft) 100,00 %
01.11.2022 04:30 16,7 C 16,1 C 12,2 C 86 % 1010,3 hPa 0,0 l/m 0 min 0 min 0 W/m 25,7 km/h (4 Bft) 100,00 %
01.11.2022 04:32 16,8 C 16,1 C 12,2 C 86 % 1010,4 hPa 0,0 l/m 0 min 0 min 0 W/m 19,3 km/h (3 Bft) 100,00 %
01.11.2022 04:34 16,8 C 16,1 C 12,2 C 86 % 1010,4 hPa 0,0 l/m 0 min 0 min 0 W/m 25,7 km/h (4 Bft) 100,00 %
01.11.2022 04:36 16,8 C 16,1 C 12,2 C 86 % 1010,4 hPa 0,0 l/m 0 min 0 min 0 W/m 29,0 km/h (5 Bft) 97,87 %
01.11.2022 04:38 16,8 C 16,1 C 12,2 C 86 % 1010,4 hPa 0,0 l/m 0 min 0 min 0 W/m 19,3 km/h (3 Bft) 97,87 %
01.11.2022 04:40 16,8 C 16,1 C 12,2 C 86 % 1010,3 hPa 0,0 l/m 0 min 0 min 0 W/m 12,9 km/h (3 Bft) 100,00 %
01.11.2022 04:42 16,9 C 16,1 C 12,2 C 86 % 1010,3 hPa 0,0 l/m 0 min 0 min 0 W/m 32,2 km/h (5 Bft) 100,00 %
01.11.2022 04:44 16,9 C 16,1 C 12,2 C 86 % 1010,5 hPa 0,0 l/m 0 min 0 min 0 W/m 19,3 km/h (3 Bft) 100,00 %
01.11.2022 04:46 16,9 C 16,1 C 12,2 C 85 % 1010,4 hPa 0,0 l/m 0 min 0 min 0 W/m 19,3 km/h (3 Bft) 100,00 %
01.11.2022 04:48 16,9 C 16,1 C 12,2 C 85 % 1010,5 hPa 0,0 l/m 0 min 0 min 0 W/m 22,5 km/h (4 Bft) 97,87 %
01.11.2022 04:50 16,9 C 16,1 C 12,2 C 85 % 1010,4 hPa 0,0 l/m 0 min 0 min 0 W/m 16,1 km/h (3 Bft) 100,00 %
01.11.2022 04:52 16,9 C 16,1 C 12,2 C 85 % 1010,4 hPa 0,0 l/m 0 min 0 min 0 W/m 12,9 km/h (3 Bft) 100,00 %
01.11.2022 04:54 16,9 C 16,1 C 12,2 C 85 % 1010,5 hPa 0,0 l/m 0 min 0 min 0 W/m 12,9 km/h (3 Bft) 95,65 %
01.11.2022 04:56 16,9 C 16,1 C 12,2 C 85 % 1010,5 hPa 0,0 l/m 0 min 0 min 0 W/m 19,3 km/h (3 Bft) 97,87 %
01.11.2022 04:58 16,9 C 16,1 C 12,2 C 85 % 1010,5 hPa 0,0 l/m 0 min 0 min 0 W/m 19,3 km/h (3 Bft) 97,87 %
01.11.2022 05:00 16,9 C 16,1 C 12,2 C 85 % 1010,5 hPa 0,0 l/m 0 min 0 min 0 W/m 25,7 km/h (4 Bft) 97,87 %
01.11.2022 05:02 16,9 C 16,1 C 12,2 C 85 % 1010,6 hPa 0,0 l/m 0 min 0 min 0 W/m 12,9 km/h (3 Bft) 95,74 %
01.11.2022 05:04 16,9 C 16,1 C 12,2 C 85 % 1010,6 hPa 0,0 l/m 0 min 0 min 0 W/m 32,2 km/h (5 Bft) 97,87 %
01.11.2022 05:06 16,9 C 16,1 C 12,2 C 85 % 1010,6 hPa 0,0 l/m 0 min 0 min 0 W/m 19,3 km/h (3 Bft) 97,83 %
01.11.2022 05:08 16,9 C 15,6 C 12,2 C 85 % 1010,7 hPa 0,0 l/m 0 min 0 min 0 W/m 12,9 km/h (3 Bft) 97,87 %
01.11.2022 05:10 16,8 C 15,6 C 12,2 C 85 % 1010,7 hPa 0,0 l/m 0 min 0 min 0 W/m 16,1 km/h (3 Bft) 95,74 %
01.11.2022 05:12 16,8 C 15,6 C 11,7 C 85 % 1010,8 hPa 0,0 l/m 0 min 0 min 0 W/m 9,7 km/h (2 Bft) 93,62 %
01.11.2022 05:14 16,8 C 15,6 C 11,7 C 85 % 1010,8 hPa 0,0 l/m 0 min 0 min 0 W/m 6,4 km/h (2 Bft) 97,87 %
01.11.2022 05:16 16,8 C 15,6 C 11,7 C 85 % 1010,9 hPa 0,0 l/m 0 min 0 min 0 W/m 19,3 km/h (3 Bft) 97,87 %
01.11.2022 05:18 16,8 C 15,6 C 11,7 C 86 % 1010,9 hPa 0,0 l/m 0 min 0 min 0 W/m 12,9 km/h (3 Bft) 97,83 %
01.11.2022 05:20 16,7 C 15,6 C 11,7 C 86 % 1011,0 hPa 0,0 l/m 0 min 0 min 0 W/m 9,7 km/h (2 Bft) 97,87 %
01.11.2022 05:22 16,7 C 15,6 C 11,7 C 86 % 1011,0 hPa 0,0 l/m 0 min 0 min 0 W/m 19,3 km/h (3 Bft) 95,74 %
01.11.2022 05:24 16,7 C 15,6 C 11,7 C 86 % 1011,1 hPa 0,0 l/m 0 min 0 min 0 W/m 12,9 km/h (3 Bft) 97,87 %
01.11.2022 05:26 16,7 C 15,6 C 11,7 C 86 % 1011,1 hPa 0,0 l/m 0 min 0 min 0 W/m 16,1 km/h (3 Bft) 97,87 %
01.11.2022 05:28 16,7 C 15,6 C 11,7 C 85 % 1011,2 hPa 0,0 l/m 0 min 0 min 0 W/m 22,5 km/h (4 Bft) 97,87 %
01.11.2022 05:30 16,7 C 15,6 C 11,7 C 85 % 1011,2 hPa 0,0 l/m 0 min 0 min 0 W/m 25,7 km/h (4 Bft) 97,83 %
01.11.2022 05:32 16,7 C 16,1 C 12,2 C 85 % 1011,2 hPa 0,0 l/m 0 min 0 min 0 W/m 22,5 km/h (4 Bft) 95,74 %
01.11.2022 05:34 16,8 C 16,1 C 12,2 C 84 % 1011,3 hPa 0,0 l/m 0 min 0 min 0 W/m 25,7 km/h (4 Bft) 97,87 %
01.11.2022 05:36 16,8 C 16,1 C 12,2 C 84 % 1011,3 hPa 0,0 l/m 0 min 0 min 0 W/m 16,1 km/h (3 Bft) 95,74 %
01.11.2022 05:38 16,8 C 16,1 C 12,2 C 84 % 1011,3 hPa 0,0 l/m 0 min 0 min 0 W/m 32,2 km/h (5 Bft) 95,74 %
01.11.2022 05:40 16,8 C 16,1 C 12,2 C 83 % 1011,3 hPa 0,0 l/m 0 min 0 min 0 W/m 22,5 km/h (4 Bft) 93,62 %
01.11.2022 05:42 16,9 C 16,1 C 12,2 C 83 % 1011,4 hPa 0,0 l/m 0 min 0 min 0 W/m 12,9 km/h (3 Bft) 100,00 %
01.11.2022 05:44 16,9 C 16,1 C 12,2 C 83 % 1011,4 hPa 0,0 l/m 0 min 0 min 0 W/m 29,0 km/h (5 Bft) 100,00 %
01.11.2022 05:46 16,9 C 16,1 C 12,2 C 83 % 1011,4 hPa 0,0 l/m 0 min 0 min 0 W/m 29,0 km/h (5 Bft) 100,00 %
01.11.2022 05:48 16,9 C 16,1 C 12,2 C 83 % 1011,4 hPa 0,0 l/m 0 min 0 min 0 W/m 38,6 km/h (5 Bft) 97,87 %
01.11.2022 05:50 16,9 C 16,1 C 12,2 C 83 % 1011,4 hPa 0,0 l/m 0 min 0 min 0 W/m 19,3 km/h (3 Bft) 100,00 %
01.11.2022 05:52 16,9 C 16,1 C 12,2 C 82 % 1011,4 hPa 0,0 l/m 0 min 0 min 0 W/m 29,0 km/h (5 Bft) 95,74 %
01.11.2022 05:54 17,0 C 16,1 C 12,2 C 82 % 1011,6 hPa 0,0 l/m 0 min 0 min 0 W/m 35,4 km/h (5 Bft) 95,65 %
01.11.2022 05:56 17,0 C 16,1 C 12,2 C 82 % 1011,6 hPa 0,0 l/m 0 min 0 min 0 W/m 29,0 km/h (5 Bft) 95,74 %
01.11.2022 05:58 17,1 C 16,1 C 12,2 C 81 % 1011,6 hPa 0,0 l/m 0 min 0 min 0 W/m 29,0 km/h (5 Bft) 95,74 %
01.11.2022 06:00 17,1 C 16,1 C 12,2 C 81 % 1011,7 hPa 0,0 l/m 0 min 0 min 0 W/m 19,3 km/h (3 Bft) 91,49 %
01.11.2022 06:02 17,1 C 16,1 C 12,2 C 81 % 1011,8 hPa 0,0 l/m 0 min 0 min 0 W/m 22,5 km/h (4 Bft) 95,74 %
01.11.2022 06:04 17,1 C 16,1 C 12,2 C 81 % 1011,9 hPa 0,0 l/m 0 min 0 min 0 W/m 22,5 km/h (4 Bft) 95,74 %
01.11.2022 06:08 17,1 C 16,1 C 12,2 C 80 % 1011,9 hPa 0,0 l/m 0 min 0 min 0 W/m 41,8 km/h (6 Bft) 94,00 %
01.11.2022 06:10 17,1 C 16,1 C 12,2 C 80 % 1011,9 hPa 0,0 l/m 0 min 0 min 0 W/m 16,1 km/h (3 Bft) 95,65 %
01.11.2022 06:12 17,0 C 16,1 C 12,2 C 80 % 1012,0 hPa 0,0 l/m 0 min 0 min 0 W/m 38,6 km/h (5 Bft) 95,74 %
01.11.2022 06:14 17,1 C 16,1 C 12,2 C 80 % 1012,1 hPa 0,0 l/m 0 min 0 min 0 W/m 29,0 km/h (5 Bft) 95,74 %
01.11.2022 06:16 17,1 C 16,1 C 12,2 C 80 % 1012,0 hPa 0,0 l/m 0 min 0 min 0 W/m 29,0 km/h (5 Bft) 95,74 %
01.11.2022 06:18 17,0 C 16,1 C 12,2 C 80 % 1012,1 hPa 0,0 l/m 0 min 0 min 0 W/m 22,5 km/h (4 Bft) 95,74 %
01.11.2022 06:20 17,0 C 16,1 C 12,2 C 80 % 1012,1 hPa 0,0 l/m 0 min 0 min 0 W/m 29,0 km/h (5 Bft) 95,74 %
01.11.2022 06:22 17,0 C 16,1 C 12,2 C 79 % 1012,2 hPa 0,0 l/m 0 min 0 min 0 W/m 29,0 km/h (5 Bft) 97,83 %
01.11.2022 06:24 17,0 C 16,1 C 12,2 C 79 % 1012,3 hPa 0,0 l/m 0 min 0 min 0 W/m 19,3 km/h (3 Bft) 95,74 %
01.11.2022 06:26 16,9 C 16,1 C 12,2 C 79 % 1012,3 hPa 0,0 l/m 0 min 0 min 0 W/m 32,2 km/h (5 Bft) 97,87 %
01.11.2022 06:28 16,9 C 16,1 C 12,2 C 79 % 1012,2 hPa 0,0 l/m 0 min 0 min 0 W/m 19,3 km/h (3 Bft) 97,87 %
01.11.2022 06:30 16,9 C 15,6 C 12,2 C 79 % 1012,3 hPa 0,0 l/m 0 min 0 min 0 W/m 12,9 km/h (3 Bft) 97,87 %
01.11.2022 06:32 16,9 C 15,6 C 12,2 C 79 % 1012,3 hPa 0,0 l/m 0 min 0 min 0 W/m 16,1 km/h (3 Bft) 93,62 %
01.11.2022 06:34 16,8 C 15,6 C 11,7 C 79 % 1012,4 hPa 0,0 l/m 0 min 0 min 0 W/m 9,7 km/h (2 Bft) 97,83 %
01.11.2022 06:36 16,8 C 15,6 C 11,7 C 79 % 1012,4 hPa 0,0 l/m 0 min 0 min 0 W/m 9,7 km/h (2 Bft) 97,87 %
01.11.2022 06:38 16,7 C 15,6 C 11,7 C 80 % 1012,5 hPa 0,0 l/m 0 min 0 min 0 W/m 16,1 km/h (3 Bft) 97,87 %
01.11.2022 06:40 16,7 C 15,6 C 11,7 C 80 % 1012,5 hPa 0,0 l/m 0 min 0 min 0 W/m 16,1 km/h (3 Bft) 95,74 %
01.11.2022 06:42 16,6 C 15,6 C 11,7 C 80 % 1012,5 hPa 0,0 l/m 0 min 0 min 0 W/m 16,1 km/h (3 Bft) 100,00 %
01.11.2022 06:44 16,6 C 15,6 C 11,7 C 80 % 1012,5 hPa 0,0 l/m 0 min 0 min 0 W/m 19,3 km/h (3 Bft) 97,87 %
01.11.2022 06:46 16,6 C 15,6 C 11,7 C 80 % 1012,7 hPa 0,0 l/m 0 min 0 min 0 W/m 16,1 km/h (3 Bft) 100,00 %
01.11.2022 06:48 16,6 C 15,6 C 11,7 C 80 % 1012,7 hPa 0,0 l/m 0 min 0 min 0 W/m 9,7 km/h (2 Bft) 100,00 %
01.11.2022 06:50 16,5 C 15,6 C 11,7 C 81 % 1012,8 hPa 0,0 l/m 0 min 0 min 0 W/m 9,7 km/h (2 Bft) 97,87 %
01.11.2022 06:52 16,4 C 15,6 C 11,7 C 81 % 1012,8 hPa 0,0 l/m 0 min 0 min 0 W/m 16,1 km/h (3 Bft) 100,00 %
01.11.2022 06:54 16,4 C 15,6 C 11,7 C 81 % 1012,8 hPa 0,0 l/m 0 min 0 min 0 W/m 3,2 km/h (1 Bft) 100,00 %
01.11.2022 06:56 16,3 C 15,0 C 11,7 C 80 % 1012,9 hPa 0,0 l/m 0 min 0 min 0 W/m 25,7 km/h (4 Bft) 100,00 %
01.11.2022 06:58 16,2 C 15,0 C 11,7 C 79 % 1012,9 hPa 0,0 l/m 0 min 0 min 0 W/m 22,5 km/h (4 Bft) 97,83 %
01.11.2022 07:00 16,1 C 15,0 C 11,7 C 79 % 1013,0 hPa 0,0 l/m 0 min 0 min 0 W/m 22,5 km/h (4 Bft) 100,00 %
01.11.2022 07:02 16,1 C 15,0 C 11,1 C 78 % 1013,1 hPa 0,0 l/m 0 min 0 min 0 W/m 25,7 km/h (4 Bft) 97,87 %
01.11.2022 07:04 16,0 C 15,0 C 11,1 C 77 % 1013,2 hPa 0,0 l/m 0 min 0 min 0 W/m 22,5 km/h (4 Bft) 100,00 %
01.11.2022 07:06 15,9 C 15,0 C 11,1 C 77 % 1013,2 hPa 0,0 l/m 0 min 0 min 0 W/m 29,0 km/h (5 Bft) 100,00 %
01.11.2022 07:08 15,9 C 15,0 C 11,1 C 77 % 1013,2 hPa 0,0 l/m 0 min 0 min 0 W/m 29,0 km/h (5 Bft) 100,00 %
01.11.2022 07:10 15,8 C 14,4 C 11,1 C 77 % 1013,2 hPa 0,0 l/m 0 min 0 min 0 W/m 22,5 km/h (4 Bft) 100,00 %
01.11.2022 07:12 15,7 C 14,4 C 11,1 C 77 % 1013,3 hPa 0,0 l/m 0 min 0 min 0 W/m 22,5 km/h (4 Bft) 97,87 %
01.11.2022 07:14 15,7 C 14,4 C 11,1 C 77 % 1013,4 hPa 0,0 l/m 0 min 0 min 0 W/m 22,5 km/h (4 Bft) 100,00 %
01.11.2022 07:16 15,6 C 14,4 C 11,1 C 77 % 1013,4 hPa 0,0 l/m 0 min 0 min 0 W/m 29,0 km/h (5 Bft) 100,00 %
01.11.2022 07:18 15,6 C 14,4 C 11,1 C 76 % 1013,5 hPa 0,0 l/m 0 min 0 min 0 W/m 25,7 km/h (4 Bft) 100,00 %
01.11.2022 07:20 15,6 C 14,4 C 11,1 C 76 % 1013,5 hPa 0,0 l/m 0 min 0 min 0 W/m 32,2 km/h (5 Bft) 100,00 %
01.11.2022 07:22 15,5 C 14,4 C 11,1 C 75 % 1013,5 hPa 0,0 l/m 0 min 0 min 0 W/m 41,8 km/h (6 Bft) 100,00 %
01.11.2022 07:24 15,4 C 14,4 C 11,1 C 75 % 1013,6 hPa 0,0 l/m 0 min 0 min 0 W/m 22,5 km/h (4 Bft) 97,87 %
01.11.2022 07:26 15,4 C 14,4 C 10,6 C 74 % 1013,7 hPa 0,0 l/m 0 min 0 min 0 W/m 35,4 km/h (5 Bft) 100,00 %
01.11.2022 07:28 15,3 C 14,4 C 10,6 C 74 % 1013,6 hPa 0,0 l/m 0 min 0 min 0 W/m 19,3 km/h (3 Bft) 100,00 %
01.11.2022 07:30 15,2 C 13,9 C 10,6 C 74 % 1013,6 hPa 0,0 l/m 0 min 0 min 0 W/m 12,9 km/h (3 Bft) 100,00 %
01.11.2022 07:32 15,2 C 13,9 C 10,6 C 74 % 1013,7 hPa 0,0 l/m 0 min 0 min 0 W/m 16,1 km/h (3 Bft) 100,00 %
01.11.2022 07:34 15,1 C 13,9 C 10,6 C 75 % 1013,7 hPa 0,0 l/m 0 min 0 min 0 W/m 16,1 km/h (3 Bft) 97,83 %
01.11.2022 07:36 15,0 C 13,9 C 10,6 C 75 % 1013,8 hPa 0,0 l/m 0 min 0 min 0 W/m 16,1 km/h (3 Bft) 100,00 %
01.11.2022 07:38 14,9 C 13,9 C 10,6 C 74 % 1013,9 hPa 0,0 l/m 0 min 0 min 0 W/m 16,1 km/h (3 Bft) 97,87 %
01.11.2022 07:40 14,8 C 13,9 C 10,6 C 74 % 1014,0 hPa 0,0 l/m 0 min 0 min 0 W/m 19,3 km/h (3 Bft) 100,00 %
01.11.2022 07:42 14,8 C 13,9 C 10,6 C 74 % 1014,1 hPa 0,0 l/m 0 min 0 min 3 W/m 19,3 km/h (3 Bft) 100,00 %
01.11.2022 07:44 14,7 C 13,9 C 10,0 C 75 % 1014,1 hPa 0,0 l/m 0 min 0 min 5 W/m 22,5 km/h (4 Bft) 97,87 %
01.11.2022 07:46 14,7 C 13,9 C 10,0 C 75 % 1014,2 hPa 0,0 l/m 0 min 0 min 5 W/m 9,7 km/h (2 Bft) 100,00 %
01.11.2022 07:48 14,6 C 13,3 C 10,0 C 75 % 1014,2 hPa 0,0 l/m 0 min 0 min 5 W/m 9,7 km/h (2 Bft) 97,87 %
01.11.2022 07:50 14,6 C 13,3 C 10,0 C 76 % 1014,2 hPa 0,0 l/m 0 min 0 min 5 W/m 6,4 km/h (2 Bft) 95,74 %
01.11.2022 07:52 14,5 C 13,3 C 10,0 C 76 % 1014,2 hPa 0,0 l/m 0 min 0 min 5 W/m 12,9 km/h (3 Bft) 91,49 %
01.11.2022 07:54 14,4 C 13,3 C 10,0 C 76 % 1014,3 hPa 0,0 l/m 0 min 0 min 5 W/m 16,1 km/h (3 Bft) 95,74 %
01.11.2022 07:56 14,3 C 13,3 C 10,0 C 77 % 1014,3 hPa 0,0 l/m 0 min 0 min 6 W/m 12,9 km/h (3 Bft) 95,74 %
01.11.2022 07:58 14,3 C 13,3 C 10,0 C 77 % 1014,3 hPa 0,0 l/m 0 min 0 min 7 W/m 19,3 km/h (3 Bft) 95,65 %
01.11.2022 08:00 14,3 C 13,3 C 9,4 C 77 % 1014,3 hPa 0,0 l/m 0 min 0 min 7 W/m 12,9 km/h (3 Bft) 95,74 %
01.11.2022 08:02 14,3 C 13,3 C 9,4 C 78 % 1014,4 hPa 0,0 l/m 0 min 0 min 7 W/m 6,4 km/h (2 Bft) 95,74 %
01.11.2022 08:04 14,3 C 12,8 C 9,4 C 78 % 1014,4 hPa 0,0 l/m 0 min 0 min 7 W/m 12,9 km/h (3 Bft) 92,68 %
01.11.2022 08:06 14,3 C 12,8 C 9,4 C 78 % 1014,5 hPa 0,0 l/m 0 min 0 min 8 W/m 19,3 km/h (3 Bft) 96,23 %
01.11.2022 08:08 14,2 C 13,3 C 9,4 C 78 % 1014,5 hPa 0,0 l/m 0 min 0 min 9 W/m 16,1 km/h (3 Bft) 96,00 %
01.11.2022 08:10 14,1 C 12,8 C 9,4 C 78 % 1014,5 hPa 0,0 l/m 0 min 0 min 9 W/m 12,9 km/h (3 Bft) 95,65 %
01.11.2022 08:12 14,1 C 12,8 C 9,4 C 78 % 1014,6 hPa 0,0 l/m 0 min 0 min 9 W/m 12,9 km/h (3 Bft) 95,74 %
01.11.2022 08:14 14,1 C 12,8 C 9,4 C 78 % 1014,7 hPa 0,0 l/m 0 min 0 min 9 W/m 16,1 km/h (3 Bft) 93,62 %
01.11.2022 08:16 14,0 C 12,8 C 9,4 C 79 % 1014,6 hPa 0,0 l/m 0 min 0 min 11 W/m 6,4 km/h (2 Bft) 95,74 %
01.11.2022 08:18 14,0 C 12,8 C 9,4 C 79 % 1014,7 hPa 0,0 l/m 0 min 0 min 11 W/m 19,3 km/h (3 Bft) 95,74 %
01.11.2022 08:20 13,9 C 12,8 C 9,4 C 79 % 1014,7 hPa 0,0 l/m 0 min 0 min 12 W/m 12,9 km/h (3 Bft) 95,65 %
01.11.2022 08:22 13,9 C 12,8 C 9,4 C 79 % 1014,8 hPa 0,0 l/m 0 min 0 min 12 W/m 9,7 km/h (2 Bft) 95,74 %
01.11.2022 08:24 13,9 C 12,8 C 9,4 C 79 % 1014,8 hPa 0,0 l/m 0 min 0 min 13 W/m 19,3 km/h (3 Bft) 97,37 %
01.11.2022 08:26 13,9 C 12,8 C 9,4 C 79 % 1014,9 hPa 0,0 l/m 0 min 0 min 14 W/m 9,7 km/h (2 Bft) 95,74 %
01.11.2022 08:28 13,8 C 12,8 C 9,4 C 79 % 1014,9 hPa 0,0 l/m 0 min 0 min 17 W/m 19,3 km/h (3 Bft) 97,87 %
01.11.2022 08:30 13,8 C 12,8 C 9,4 C 79 % 1015,0 hPa 0,0 l/m 0 min 0 min 21 W/m 19,3 km/h (3 Bft) 97,87 %
01.11.2022 08:32 13,8 C 12,8 C 9,4 C 79 % 1015,0 hPa 0,0 l/m 0 min 0 min 22 W/m 22,5 km/h (4 Bft) 97,87 %
01.11.2022 08:34 13,8 C 12,8 C 9,4 C 79 % 1015,1 hPa 0,0 l/m 0 min 0 min 32 W/m 25,7 km/h (4 Bft) 97,87 %
01.11.2022 08:36 13,8 C 13,3 C 9,4 C 79 % 1015,1 hPa 0,0 l/m 0 min 0 min 37 W/m 16,1 km/h (3 Bft) 98,28 %
01.11.2022 08:38 13,8 C 13,3 C 9,4 C 79 % 1015,1 hPa 0,0 l/m 0 min 0 min 37 W/m 29,0 km/h (5 Bft) 100,00 %
01.11.2022 08:40 13,8 C 13,3 C 9,4 C 78 % 1015,2 hPa 0,0 l/m 0 min 0 min 40 W/m 19,3 km/h (3 Bft) 100,00 %
01.11.2022 08:42 13,8 C 13,3 C 9,4 C 78 % 1015,4 hPa 0,0 l/m 0 min 0 min 35 W/m 16,1 km/h (3 Bft) 97,87 %
01.11.2022 08:44 13,9 C 13,3 C 9,4 C 78 % 1015,2 hPa 0,0 l/m 0 min 0 min 31 W/m 16,1 km/h (3 Bft) 100,00 %
01.11.2022 08:46 13,9 C 13,3 C 9,4 C 78 % 1015,4 hPa 0,0 l/m 0 min 0 min 33 W/m 32,2 km/h (5 Bft) 97,87 %
01.11.2022 08:48 13,9 C 13,3 C 9,4 C 78 % 1015,4 hPa 0,0 l/m 0 min 0 min 34 W/m 32,2 km/h (5 Bft) 97,83 %
01.11.2022 08:50 13,9 C 13,3 C 9,4 C 78 % 1015,4 hPa 0,0 l/m 0 min 0 min 32 W/m 22,5 km/h (4 Bft) 95,74 %
01.11.2022 08:52 13,9 C 13,3 C 9,4 C 77 % 1015,4 hPa 0,0 l/m 0 min 0 min 49 W/m 32,2 km/h (5 Bft) 97,87 %
01.11.2022 08:54 14,0 C 13,3 C 9,4 C 77 % 1015,5 hPa 0,0 l/m 0 min 0 min 42 W/m 29,0 km/h (5 Bft) 95,74 %
01.11.2022 08:56 14,0 C 13,3 C 10,0 C 77 % 1015,4 hPa 0,0 l/m 0 min 0 min 33 W/m 22,5 km/h (4 Bft) 97,87 %
01.11.2022 08:58 14,1 C 13,3 C 10,0 C 76 % 1015,6 hPa 0,0 l/m 0 min 0 min 33 W/m 32,2 km/h (5 Bft) 95,65 %
01.11.2022 09:00 14,1 C 13,3 C 10,0 C 76 % 1015,5 hPa 0,0 l/m 0 min 0 min 36 W/m 32,2 km/h (5 Bft) 97,87 %
01.11.2022 09:02 14,1 C 13,3 C 10,0 C 76 % 1015,5 hPa 0,0 l/m 0 min 0 min 35 W/m 29,0 km/h (5 Bft) 96,00 %
01.11.2022 09:04 14,1 C 13,3 C 10,0 C 76 % 1015,6 hPa 0,0 l/m 0 min 0 min 38 W/m 32,2 km/h (5 Bft) 95,74 %
01.11.2022 09:06 14,1 C 13,3 C 10,0 C 75 % 1015,5 hPa 0,0 l/m 0 min 0 min 42 W/m 29,0 km/h (5 Bft) 93,62 %
01.11.2022 09:08 14,1 C 13,3 C 10,0 C 75 % 1015,6 hPa 0,0 l/m 0 min 0 min 37 W/m 25,7 km/h (4 Bft) 97,87 %
01.11.2022 09:10 14,1 C 13,3 C 10,0 C 74 % 1015,6 hPa 0,0 l/m 0 min 0 min 38 W/m 29,0 km/h (5 Bft) 95,65 %
01.11.2022 09:12 14,1 C 13,3 C 10,0 C 73 % 1015,5 hPa 0,0 l/m 0 min 0 min 39 W/m 32,2 km/h (5 Bft) 97,87 %
01.11.2022 09:14 14,1 C 13,3 C 10,0 C 73 % 1015,5 hPa 0,0 l/m 0 min 0 min 39 W/m 29,0 km/h (5 Bft) 97,87 %
01.11.2022 09:16 14,1 C 13,3 C 10,0 C 73 % 1015,6 hPa 0,0 l/m 0 min 0 min 40 W/m 29,0 km/h (5 Bft) 97,87 %
01.11.2022 09:18 14,1 C 13,3 C 10,0 C 73 % 1015,7 hPa 0,0 l/m 0 min 0 min 40 W/m 29,0 km/h (5 Bft) 97,87 %
01.11.2022 09:20 14,1 C 13,3 C 10,0 C 72 % 1015,8 hPa 0,0 l/m 0 min 0 min 50 W/m 32,2 km/h (5 Bft) 95,74 %
01.11.2022 09:22 14,1 C 13,3 C 9,4 C 72 % 1015,6 hPa 0,0 l/m 0 min 0 min 51 W/m 25,7 km/h (4 Bft) 97,83 %
01.11.2022 09:24 14,1 C 13,3 C 9,4 C 72 % 1015,8 hPa 0,0 l/m 0 min 0 min 50 W/m 25,7 km/h (4 Bft) 97,87 %
01.11.2022 09:26 14,1 C 13,3 C 9,4 C 72 % 1015,6 hPa 0,0 l/m 0 min 0 min 44 W/m 35,4 km/h (5 Bft) 97,87 %
01.11.2022 09:28 14,1 C 13,3 C 9,4 C 72 % 1015,8 hPa 0,0 l/m 0 min 0 min 72 W/m 32,2 km/h (5 Bft) 95,74 %
01.11.2022 09:30 14,1 C 13,9 C 9,4 C 72 % 1015,9 hPa 0,0 l/m 2 min 0 min 199 W/m 25,7 km/h (4 Bft) 97,87 %
01.11.2022 09:32 14,1 C 13,9 C 10,0 C 71 % 1015,8 hPa 0,0 l/m 2 min 0 min 169 W/m 32,2 km/h (5 Bft) 97,87 %
01.11.2022 09:34 14,1 C 13,9 C 10,0 C 71 % 1015,8 hPa 0,0 l/m 2 min 0 min 214 W/m 25,7 km/h (4 Bft) 100,00 %
01.11.2022 09:36 14,1 C 13,9 C 10,0 C 72 % 1015,8 hPa 0,0 l/m 2 min 0 min 178 W/m 25,7 km/h (4 Bft) 97,87 %
01.11.2022 09:38 14,1 C 13,9 C 10,0 C 71 % 1015,8 hPa 0,0 l/m 2 min 0 min 200 W/m 32,2 km/h (5 Bft) 97,87 %
01.11.2022 09:40 14,2 C 13,9 C 10,0 C 71 % 1015,8 hPa 0,0 l/m 2 min 0 min 229 W/m 29,0 km/h (5 Bft) 97,87 %
01.11.2022 09:42 14,2 C 14,4 C 10,0 C 71 % 1015,9 hPa 0,0 l/m 2 min 0 min 207 W/m 35,4 km/h (5 Bft) 95,74 %
01.11.2022 09:44 14,2 C 14,4 C 10,0 C 70 % 1015,9 hPa 0,0 l/m 2 min 0 min 188 W/m 29,0 km/h (5 Bft) 97,87 %
01.11.2022 09:46 14,3 C 14,4 C 10,0 C 71 % 1016,0 hPa 0,0 l/m 2 min 0 min 227 W/m 29,0 km/h (5 Bft) 97,83 %
01.11.2022 09:48 14,3 C 14,4 C 10,0 C 71 % 1016,0 hPa 0,0 l/m 2 min 0 min 205 W/m 22,5 km/h (4 Bft) 93,62 %
01.11.2022 09:50 14,3 C 14,4 C 10,0 C 71 % 1016,0 hPa 0,0 l/m 2 min 0 min 240 W/m 38,6 km/h (5 Bft) 97,87 %
01.11.2022 09:52 14,3 C 15,6 C 10,0 C 70 % 1016,0 hPa 0,0 l/m 2 min 0 min 255 W/m 25,7 km/h (4 Bft) 97,87 %
01.11.2022 09:54 14,3 C 16,1 C 10,0 C 71 % 1016,0 hPa 0,0 l/m 2 min 0 min 254 W/m 16,1 km/h (3 Bft) 97,87 %
01.11.2022 09:56 14,4 C 16,7 C 10,0 C 71 % 1016,2 hPa 0,0 l/m 2 min 0 min 250 W/m 29,0 km/h (5 Bft) 97,87 %
01.11.2022 09:58 14,5 C 17,2 C 10,0 C 69 % 1016,2 hPa 0,0 l/m 0 min 0 min 142 W/m 29,0 km/h (5 Bft) 97,83 %
01.11.2022 10:00 14,6 C 17,8 C 10,0 C 69 % 1016,1 hPa 0,0 l/m 0 min 0 min 97 W/m 38,6 km/h (5 Bft) 95,74 %
01.11.2022 10:02 14,6 C 18,3 C 10,0 C 69 % 1016,2 hPa 0,0 l/m 2 min 0 min 177 W/m 25,7 km/h (4 Bft) 97,87 %
01.11.2022 10:04 14,7 C 18,9 C 10,0 C 70 % 1016,1 hPa 0,0 l/m 0 min 0 min 123 W/m 19,3 km/h (3 Bft) 97,87 %
01.11.2022 10:06 14,7 C 19,4 C 10,0 C 70 % 1016,2 hPa 0,0 l/m 0 min 0 min 150 W/m 19,3 km/h (3 Bft) 97,87 %
01.11.2022 10:08 14,8 C 20,0 C 10,6 C 70 % 1016,2 hPa 0,0 l/m 2 min 0 min 179 W/m 35,4 km/h (5 Bft) 97,87 %
01.11.2022 10:10 14,8 C 21,1 C 10,6 C 70 % 1016,3 hPa 0,0 l/m 0 min 0 min 144 W/m 16,1 km/h (3 Bft) 97,83 %
01.11.2022 10:12 14,9 C 21,7 C 10,6 C 70 % 1016,3 hPa 0,0 l/m 0 min 0 min 131 W/m 19,3 km/h (3 Bft) 97,87 %
01.11.2022 10:14 15,0 C 21,7 C 10,6 C 69 % 1016,2 hPa 0,0 l/m 0 min 0 min 117 W/m 22,5 km/h (4 Bft) 95,74 %
01.11.2022 10:16 15,1 C 21,1 C 10,6 C 69 % 1016,3 hPa 0,0 l/m 2 min 0 min 183 W/m 35,4 km/h (5 Bft) 97,87 %
01.11.2022 10:18 15,1 C 21,1 C 10,6 C 69 % 1016,4 hPa 0,0 l/m 2 min 0 min 280 W/m 29,0 km/h (5 Bft) 97,87 %
01.11.2022 10:20 15,1 C 20,6 C 10,6 C 69 % 1016,4 hPa 0,0 l/m 2 min 0 min 325 W/m 38,6 km/h (5 Bft) 97,87 %
01.11.2022 10:22 15,1 C 20,0 C 10,6 C 69 % 1016,4 hPa 0,0 l/m 2 min 0 min 334 W/m 51,5 km/h (7 Bft) 100,00 %
01.11.2022 10:24 15,1 C 20,0 C 10,6 C 69 % 1016,4 hPa 0,0 l/m 2 min 0 min 338 W/m 35,4 km/h (5 Bft) 97,87 %
01.11.2022 10:26 15,2 C 20,6 C 10,6 C 69 % 1016,4 hPa 0,0 l/m 2 min 0 min 340 W/m 32,2 km/h (5 Bft) 97,87 %
01.11.2022 10:28 15,2 C 21,1 C 10,6 C 69 % 1016,4 hPa 0,0 l/m 2 min 0 min 342 W/m 38,6 km/h (5 Bft) 100,00 %
01.11.2022 10:30 15,2 C 21,1 C 10,6 C 69 % 1016,4 hPa 0,0 l/m 2 min 0 min 345 W/m 32,2 km/h (5 Bft) 100,00 %
01.11.2022 10:32 15,3 C 20,0 C 10,6 C 69 % 1016,4 hPa 0,0 l/m 2 min 0 min 347 W/m 35,4 km/h (5 Bft) 100,00 %
01.11.2022 10:34 15,3 C 20,0 C 10,6 C 69 % 1016,6 hPa 0,0 l/m 2 min 0 min 347 W/m 45,1 km/h (6 Bft) 100,00 %
01.11.2022 10:36 15,3 C 20,0 C 10,6 C 69 % 1016,5 hPa 0,0 l/m 2 min 0 min 350 W/m 35,4 km/h (5 Bft) 100,00 %
01.11.2022 10:38 15,3 C 20,0 C 10,6 C 69 % 1016,5 hPa 0,0 l/m 2 min 0 min 333 W/m 35,4 km/h (5 Bft) 97,83 %
01.11.2022 10:40 15,4 C 19,4 C 10,6 C 69 % 1016,4 hPa 0,0 l/m 2 min 0 min 322 W/m 41,8 km/h (6 Bft) 100,00 %
01.11.2022 10:42 15,4 C 18,9 C 10,6 C 69 % 1016,5 hPa 0,0 l/m 2 min 0 min 235 W/m 35,4 km/h (5 Bft) 100,00 %
01.11.2022 10:44 15,5 C 18,3 C 10,6 C 70 % 1016,5 hPa 0,0 l/m 0 min 0 min 128 W/m 25,7 km/h (4 Bft) 100,00 %
01.11.2022 10:46 15,6 C 17,8 C 10,6 C 69 % 1016,5 hPa 0,0 l/m 0 min 0 min 129 W/m 25,7 km/h (4 Bft) 100,00 %
01.11.2022 10:48 15,6 C 17,2 C 11,1 C 70 % 1016,5 hPa 0,0 l/m 0 min 0 min 168 W/m 32,2 km/h (5 Bft) 97,87 %
01.11.2022 10:50 15,6 C 17,2 C 11,1 C 69 % 1016,5 hPa 0,0 l/m 2 min 0 min 265 W/m 25,7 km/h (4 Bft) 100,00 %
01.11.2022 10:52 15,6 C 17,2 C 11,1 C 69 % 1016,4 hPa 0,0 l/m 2 min 0 min 186 W/m 29,0 km/h (5 Bft) 100,00 %
01.11.2022 10:54 15,6 C 16,1 C 11,1 C 69 % 1016,4 hPa 0,0 l/m 0 min 0 min 112 W/m 29,0 km/h (5 Bft) 100,00 %
01.11.2022 10:56 15,6 C 15,6 C 11,1 C 69 % 1016,5 hPa 0,0 l/m 0 min 0 min 157 W/m 38,6 km/h (5 Bft) 100,00 %
01.11.2022 10:58 15,5 C 15,6 C 11,1 C 69 % 1016,3 hPa 0,0 l/m 0 min 0 min 75 W/m 25,7 km/h (4 Bft) 97,87 %
01.11.2022 11:00 15,5 C 15,6 C 11,1 C 70 % 1016,4 hPa 0,0 l/m 0 min 0 min 106 W/m 19,3 km/h (3 Bft) 97,87 %
01.11.2022 11:02 15,6 C 15,6 C 11,1 C 70 % 1016,5 hPa 0,0 l/m 0 min 0 min 98 W/m 22,5 km/h (4 Bft) 97,83 %
01.11.2022 11:04 15,6 C 15,6 C 11,1 C 70 % 1016,5 hPa 0,0 l/m 0 min 0 min 102 W/m 32,2 km/h (5 Bft) 100,00 %
01.11.2022 11:06 15,7 C 15,6 C 11,1 C 69 % 1016,5 hPa 0,0 l/m 0 min 0 min 68 W/m 32,2 km/h (5 Bft) 100,00 %
01.11.2022 11:08 15,7 C 15,0 C 11,1 C 69 % 1016,6 hPa 0,0 l/m 0 min 0 min 52 W/m 29,0 km/h (5 Bft) 97,87 %
01.11.2022 11:10 15,6 C 15,0 C 11,1 C 69 % 1016,6 hPa 0,0 l/m 0 min 0 min 50 W/m 38,6 km/h (5 Bft) 95,74 %
01.11.2022 11:12 15,6 C 15,0 C 11,1 C 69 % 1016,8 hPa 0,0 l/m 0 min 0 min 49 W/m 54,7 km/h (7 Bft) 97,87 %
01.11.2022 11:14 15,6 C 15,0 C 11,1 C 68 % 1016,6 hPa 0,0 l/m 0 min 0 min 48 W/m 38,6 km/h (5 Bft) 97,83 %
01.11.2022 11:16 15,6 C 15,0 C 11,1 C 69 % 1016,6 hPa 0,0 l/m 0 min 0 min 48 W/m 41,8 km/h (6 Bft) 93,62 %
01.11.2022 11:18 15,6 C 15,0 C 11,1 C 69 % 1016,6 hPa 0,0 l/m 0 min 0 min 49 W/m 25,7 km/h (4 Bft) 97,87 %
01.11.2022 11:20 15,6 C 15,0 C 11,1 C 69 % 1016,7 hPa 0,0 l/m 0 min 0 min 49 W/m 29,0 km/h (5 Bft) 97,87 %
01.11.2022 11:22 15,6 C 15,0 C 11,1 C 69 % 1016,7 hPa 0,0 l/m 0 min 0 min 48 W/m 38,6 km/h (5 Bft) 97,87 %
01.11.2022 11:24 15,6 C 15,0 C 11,1 C 69 % 1016,7 hPa 0,0 l/m 0 min 0 min 50 W/m 41,8 km/h (6 Bft) 95,74 %
01.11.2022 11:26 15,6 C 15,0 C 11,1 C 69 % 1016,8 hPa 0,0 l/m 0 min 0 min 48 W/m 29,0 km/h (5 Bft) 95,24 %
01.11.2022 11:28 15,6 C 15,0 C 11,1 C 69 % 1016,8 hPa 0,0 l/m 0 min 0 min 47 W/m 22,5 km/h (4 Bft) 95,74 %
01.11.2022 11:30 15,7 C 15,6 C 11,1 C 70 % 1016,7 hPa 0,0 l/m 0 min 0 min 47 W/m 22,5 km/h (4 Bft) 93,62 %
01.11.2022 11:32 15,7 C 15,6 C 11,1 C 69 % 1016,8 hPa 0,0 l/m 0 min 0 min 49 W/m 35,4 km/h (5 Bft) 95,74 %
01.11.2022 11:34 15,7 C 15,0 C 11,1 C 69 % 1016,9 hPa 0,0 l/m 0 min 0 min 49 W/m 25,7 km/h (4 Bft) 93,48 %
01.11.2022 11:36 15,7 C 15,0 C 11,1 C 69 % 1016,9 hPa 0,0 l/m 0 min 0 min 49 W/m 35,4 km/h (5 Bft) 94,92 %
01.11.2022 11:38 15,7 C 15,0 C 11,1 C 69 % 1016,9 hPa 0,0 l/m 0 min 0 min 49 W/m 29,0 km/h (5 Bft) 97,14 %
01.11.2022 11:40 15,7 C 15,0 C 11,1 C 69 % 1016,8 hPa 0,0 l/m 0 min 0 min 49 W/m 22,5 km/h (4 Bft) 93,62 %
01.11.2022 11:42 15,8 C 15,6 C 11,1 C 70 % 1016,8 hPa 0,0 l/m 0 min 0 min 49 W/m 25,7 km/h (4 Bft) 93,62 %
01.11.2022 11:44 15,8 C 15,6 C 11,1 C 69 % 1016,9 hPa 0,0 l/m 0 min 0 min 49 W/m 25,7 km/h (4 Bft) 91,49 %
01.11.2022 11:46 15,9 C 15,6 C 11,1 C 70 % 1016,8 hPa 0,0 l/m 0 min 0 min 49 W/m 19,3 km/h (3 Bft) 91,49 %
01.11.2022 11:48 15,8 C 15,6 C 11,1 C 69 % 1017,0 hPa 0,0 l/m 0 min 0 min 49 W/m 22,5 km/h (4 Bft) 93,48 %
01.11.2022 11:50 15,8 C 15,0 C 11,1 C 69 % 1017,0 hPa 0,0 l/m 0 min 0 min 49 W/m 48,3 km/h (6 Bft) 91,49 %
01.11.2022 11:52 15,8 C 15,0 C 11,1 C 69 % 1016,9 hPa 0,0 l/m 0 min 0 min 49 W/m 16,1 km/h (3 Bft) 93,62 %
01.11.2022 11:54 15,8 C 15,6 C 11,1 C 70 % 1017,0 hPa 0,0 l/m 0 min 0 min 49 W/m 32,2 km/h (5 Bft) 93,62 %
01.11.2022 11:56 15,8 C 15,6 C 11,1 C 69 % 1016,9 hPa 0,0 l/m 0 min 0 min 49 W/m 32,2 km/h (5 Bft) 93,62 %
01.11.2022 11:58 15,8 C 15,0 C 11,1 C 69 % 1017,0 hPa 0,0 l/m 0 min 0 min 50 W/m 35,4 km/h (5 Bft) 93,48 %
01.11.2022 12:00 15,8 C 15,0 C 11,1 C 69 % 1017,1 hPa 0,0 l/m 0 min 0 min 52 W/m 38,6 km/h (5 Bft) 93,62 %
01.11.2022 12:02 15,8 C 15,0 C 11,1 C 69 % 1016,9 hPa 0,0 l/m 0 min 0 min 51 W/m 51,5 km/h (7 Bft) 95,74 %
01.11.2022 12:04 15,8 C 15,6 C 11,1 C 69 % 1016,9 hPa 0,0 l/m 0 min 0 min 51 W/m 35,4 km/h (5 Bft) 93,62 %
01.11.2022 12:08 15,8 C 15,6 C 11,1 C 70 % 1016,9 hPa 0,0 l/m 0 min 0 min 52 W/m 35,4 km/h (5 Bft) 94,85 %
01.11.2022 12:10 15,8 C 15,6 C 11,1 C 69 % 1017,0 hPa 0,0 l/m 0 min 0 min 51 W/m 32,2 km/h (5 Bft) 93,48 %
01.11.2022 12:12 15,9 C 15,6 C 11,1 C 69 % 1017,0 hPa 0,0 l/m 0 min 0 min 52 W/m 22,5 km/h (4 Bft) 97,87 %
01.11.2022 12:14 15,9 C 15,6 C 11,1 C 69 % 1016,9 hPa 0,0 l/m 0 min 0 min 51 W/m 29,0 km/h (5 Bft) 100,00 %
01.11.2022 12:16 15,9 C 15,6 C 11,1 C 68 % 1016,9 hPa 0,0 l/m 0 min 0 min 51 W/m 51,5 km/h (7 Bft) 100,00 %
01.11.2022 12:18 15,9 C 15,6 C 11,1 C 69 % 1017,0 hPa 0,0 l/m 0 min 0 min 53 W/m 29,0 km/h (5 Bft) 100,00 %
01.11.2022 12:20 15,9 C 15,6 C 11,1 C 69 % 1016,9 hPa 0,0 l/m 0 min 0 min 53 W/m 25,7 km/h (4 Bft) 95,74 %
01.11.2022 12:22 15,9 C 15,6 C 11,1 C 69 % 1017,0 hPa 0,0 l/m 0 min 0 min 53 W/m 22,5 km/h (4 Bft) 100,00 %
01.11.2022 12:24 15,9 C 15,6 C 11,1 C 69 % 1017,1 hPa 0,0 l/m 0 min 0 min 53 W/m 38,6 km/h (5 Bft) 100,00 %
01.11.2022 12:26 16,0 C 15,6 C 11,1 C 69 % 1017,1 hPa 0,0 l/m 0 min 0 min 54 W/m 19,3 km/h (3 Bft) 97,87 %
01.11.2022 12:28 16,0 C 15,6 C 11,7 C 69 % 1017,0 hPa 0,0 l/m 0 min 0 min 54 W/m 35,4 km/h (5 Bft) 100,00 %
01.11.2022 12:30 16,1 C 15,6 C 11,7 C 69 % 1016,9 hPa 0,0 l/m 0 min 0 min 54 W/m 9,7 km/h (2 Bft) 97,87 %
01.11.2022 12:32 16,1 C 15,6 C 11,7 C 69 % 1017,0 hPa 0,0 l/m 0 min 0 min 54 W/m 32,2 km/h (5 Bft) 97,87 %
01.11.2022 12:34 16,1 C 15,6 C 11,7 C 69 % 1017,1 hPa 0,0 l/m 0 min 0 min 56 W/m 22,5 km/h (4 Bft) 97,83 %
01.11.2022 12:36 16,1 C 15,6 C 11,7 C 68 % 1017,1 hPa 0,0 l/m 0 min 0 min 64 W/m 41,8 km/h (6 Bft) 97,87 %
01.11.2022 12:38 16,1 C 15,6 C 11,7 C 68 % 1017,1 hPa 0,0 l/m 0 min 0 min 63 W/m 19,3 km/h (3 Bft) 100,00 %
01.11.2022 12:40 16,1 C 15,6 C 11,7 C 68 % 1017,1 hPa 0,0 l/m 0 min 0 min 69 W/m 38,6 km/h (5 Bft) 100,00 %
01.11.2022 12:42 16,1 C 15,6 C 11,7 C 68 % 1017,2 hPa 0,0 l/m 0 min 0 min 63 W/m 32,2 km/h (5 Bft) 100,00 %
01.11.2022 12:44 16,1 C 16,1 C 11,7 C 67 % 1017,2 hPa 0,0 l/m 0 min 0 min 64 W/m 48,3 km/h (6 Bft) 97,87 %
01.11.2022 12:46 16,1 C 16,1 C 11,7 C 68 % 1017,2 hPa 0,0 l/m 0 min 0 min 79 W/m 32,2 km/h (5 Bft) 100,00 %
01.11.2022 12:48 16,1 C 16,1 C 11,7 C 68 % 1017,1 hPa 0,0 l/m 0 min 0 min 72 W/m 32,2 km/h (5 Bft) 100,00 %
01.11.2022 12:50 16,2 C 16,7 C 11,7 C 68 % 1017,1 hPa 0,0 l/m 0 min 0 min 83 W/m 22,5 km/h (4 Bft) 97,87 %
01.11.2022 12:52 16,2 C 16,7 C 11,7 C 68 % 1017,1 hPa 0,0 l/m 0 min 0 min 140 W/m 22,5 km/h (4 Bft) 100,00 %
01.11.2022 12:54 16,2 C 17,2 C 11,7 C 68 % 1017,2 hPa 0,0 l/m 0 min 0 min 174 W/m 25,7 km/h (4 Bft) 97,87 %
01.11.2022 12:56 16,3 C 17,2 C 11,7 C 67 % 1017,1 hPa 0,0 l/m 2 min 0 min 323 W/m 41,8 km/h (6 Bft) 97,87 %
01.11.2022 12:58 16,3 C 17,2 C 11,7 C 67 % 1017,1 hPa 0,0 l/m 0 min 0 min 200 W/m 29,0 km/h (5 Bft) 100,00 %
01.11.2022 13:00 16,3 C 17,2 C 11,7 C 67 % 1017,1 hPa 0,0 l/m 2 min 0 min 231 W/m 29,0 km/h (5 Bft) 100,00 %
01.11.2022 13:02 16,3 C 17,2 C 11,7 C 67 % 1017,2 hPa 0,0 l/m 2 min 0 min 206 W/m 29,0 km/h (5 Bft) 100,00 %
01.11.2022 13:04 16,4 C 17,8 C 11,7 C 67 % 1017,0 hPa 0,0 l/m 2 min 0 min 345 W/m 16,1 km/h (3 Bft) 100,00 %
01.11.2022 13:06 16,4 C 17,8 C 11,7 C 67 % 1017,0 hPa 0,0 l/m 2 min 0 min 407 W/m 29,0 km/h (5 Bft) 95,74 %
01.11.2022 13:08 16,5 C 18,3 C 11,7 C 67 % 1017,0 hPa 0,0 l/m 2 min 0 min 412 W/m 29,0 km/h (5 Bft) 100,00 %
01.11.2022 13:10 16,6 C 17,8 C 11,7 C 67 % 1016,9 hPa 0,0 l/m 2 min 0 min 408 W/m 35,4 km/h (5 Bft) 100,00 %
01.11.2022 13:12 16,6 C 17,2 C 11,7 C 66 % 1016,9 hPa 0,0 l/m 2 min 0 min 410 W/m 29,0 km/h (5 Bft) 97,87 %
01.11.2022 13:14 16,6 C 17,2 C 11,7 C 67 % 1016,9 hPa 0,0 l/m 2 min 0 min 410 W/m 19,3 km/h (3 Bft) 97,87 %
01.11.2022 13:16 16,6 C 16,7 C 11,7 C 66 % 1017,2 hPa 0,0 l/m 2 min 0 min 410 W/m 48,3 km/h (6 Bft) 100,00 %
01.11.2022 13:18 16,6 C 16,7 C 11,7 C 67 % 1017,0 hPa 0,0 l/m 2 min 0 min 409 W/m 22,5 km/h (4 Bft) 100,00 %
01.11.2022 13:20 16,6 C 16,1 C 11,7 C 67 % 1017,0 hPa 0,0 l/m 2 min 0 min 406 W/m 29,0 km/h (5 Bft) 100,00 %
01.11.2022 13:22 16,6 C 16,1 C 11,7 C 67 % 1016,9 hPa 0,0 l/m 2 min 0 min 403 W/m 35,4 km/h (5 Bft) 100,00 %
01.11.2022 13:24 16,6 C 16,1 C 11,7 C 67 % 1016,9 hPa 0,0 l/m 2 min 0 min 403 W/m 29,0 km/h (5 Bft) 100,00 %
01.11.2022 13:26 16,6 C 16,7 C 11,7 C 67 % 1016,9 hPa 0,0 l/m 2 min 0 min 404 W/m 16,1 km/h (3 Bft) 100,00 %
01.11.2022 13:28 16,7 C 16,7 C 11,7 C 67 % 1016,9 hPa 0,0 l/m 2 min 0 min 398 W/m 12,9 km/h (3 Bft) 95,74 %
01.11.2022 13:30 16,7 C 16,7 C 11,7 C 68 % 1017,0 hPa 0,0 l/m 2 min 0 min 397 W/m 19,3 km/h (3 Bft) 100,00 %
01.11.2022 13:32 16,8 C 16,7 C 11,7 C 67 % 1017,0 hPa 0,0 l/m 2 min 0 min 392 W/m 35,4 km/h (5 Bft) 95,74 %
01.11.2022 13:34 16,8 C 16,7 C 11,7 C 67 % 1016,9 hPa 0,0 l/m 2 min 0 min 394 W/m 35,4 km/h (5 Bft) 100,00 %
01.11.2022 13:36 16,8 C 16,7 C 11,7 C 66 % 1016,9 hPa 0,0 l/m 2 min 0 min 392 W/m 32,2 km/h (5 Bft) 97,87 %
01.11.2022 13:38 16,8 C 17,2 C 11,7 C 66 % 1016,9 hPa 0,0 l/m 2 min 0 min 393 W/m 35,4 km/h (5 Bft) 100,00 %
01.11.2022 13:40 16,8 C 17,2 C 11,7 C 66 % 1016,8 hPa 0,0 l/m 2 min 0 min 390 W/m 38,6 km/h (5 Bft) 100,00 %
01.11.2022 13:42 16,8 C 17,2 C 11,7 C 66 % 1016,9 hPa 0,0 l/m 2 min 0 min 387 W/m 32,2 km/h (5 Bft) 97,87 %
01.11.2022 13:44 16,8 C 17,2 C 11,7 C 66 % 1016,9 hPa 0,0 l/m 2 min 0 min 391 W/m 29,0 km/h (5 Bft) 93,62 %
01.11.2022 13:46 16,8 C 16,7 C 11,7 C 66 % 1017,0 hPa 0,0 l/m 2 min 0 min 391 W/m 22,5 km/h (4 Bft) 97,83 %
01.11.2022 13:48 16,8 C 16,7 C 11,7 C 66 % 1016,9 hPa 0,0 l/m 2 min 0 min 384 W/m 38,6 km/h (5 Bft) 97,87 %
01.11.2022 13:50 16,7 C 16,7 C 11,7 C 66 % 1016,9 hPa 0,0 l/m 2 min 0 min 386 W/m 41,8 km/h (6 Bft) 95,74 %
01.11.2022 13:52 16,7 C 17,2 C 11,7 C 66 % 1017,0 hPa 0,0 l/m 2 min 0 min 382 W/m 35,4 km/h (5 Bft) 97,87 %
01.11.2022 13:54 16,7 C 17,2 C 11,7 C 66 % 1017,0 hPa 0,0 l/m 2 min 0 min 384 W/m 25,7 km/h (4 Bft) 95,74 %
01.11.2022 13:56 16,7 C 17,8 C 11,7 C 67 % 1016,9 hPa 0,0 l/m 2 min 0 min 374 W/m 32,2 km/h (5 Bft) 97,83 %
01.11.2022 13:58 16,7 C 17,2 C 11,7 C 66 % 1016,9 hPa 0,0 l/m 2 min 0 min 376 W/m 16,1 km/h (3 Bft) 97,87 %
01.11.2022 14:00 16,7 C 17,8 C 11,7 C 67 % 1016,9 hPa 0,0 l/m 2 min 0 min 372 W/m 25,7 km/h (4 Bft) 93,62 %
01.11.2022 14:02 16,8 C 17,8 C 11,7 C 66 % 1016,8 hPa 0,0 l/m 2 min 0 min 366 W/m 35,4 km/h (5 Bft) 91,49 %
01.11.2022 14:04 16,8 C 17,8 C 11,7 C 66 % 1016,9 hPa 0,0 l/m 2 min 0 min 361 W/m 29,0 km/h (5 Bft) 93,62 %
01.11.2022 14:06 16,8 C 17,8 C 11,7 C 67 % 1017,0 hPa 0,0 l/m 2 min 0 min 362 W/m 35,4 km/h (5 Bft) 93,62 %
01.11.2022 14:08 16,8 C 17,8 C 11,7 C 66 % 1016,9 hPa 0,0 l/m 2 min 0 min 357 W/m 29,0 km/h (5 Bft) 93,48 %
01.11.2022 14:10 16,8 C 17,8 C 11,7 C 66 % 1016,9 hPa 0,0 l/m 2 min 0 min 348 W/m 38,6 km/h (5 Bft) 91,49 %
01.11.2022 14:12 16,8 C 17,2 C 11,7 C 66 % 1017,0 hPa 0,0 l/m 2 min 0 min 346 W/m 35,4 km/h (5 Bft) 91,49 %
01.11.2022 14:14 16,8 C 17,2 C 11,7 C 66 % 1016,9 hPa 0,0 l/m 2 min 0 min 342 W/m 19,3 km/h (3 Bft) 91,49 %
01.11.2022 14:16 16,8 C 17,2 C 11,7 C 66 % 1016,8 hPa 0,0 l/m 2 min 0 min 336 W/m 25,7 km/h (4 Bft) 93,62 %
01.11.2022 14:18 16,8 C 16,7 C 11,7 C 66 % 1016,8 hPa 0,0 l/m 2 min 0 min 334 W/m 25,7 km/h (4 Bft) 91,49 %
01.11.2022 14:20 16,8 C 16,7 C 11,7 C 67 % 1016,9 hPa 0,0 l/m 2 min 0 min 330 W/m 29,0 km/h (5 Bft) 93,62 %
01.11.2022 14:22 16,8 C 16,7 C 11,7 C 67 % 1016,8 hPa 0,0 l/m 2 min 0 min 328 W/m 16,1 km/h (3 Bft) 89,13 %
01.11.2022 14:24 16,9 C 17,2 C 11,7 C 67 % 1016,8 hPa 0,0 l/m 2 min 0 min 278 W/m 22,5 km/h (4 Bft) 93,62 %
01.11.2022 14:26 16,9 C 17,8 C 11,7 C 66 % 1016,9 hPa 0,0 l/m 2 min 0 min 289 W/m 38,6 km/h (5 Bft) 93,62 %
01.11.2022 14:28 16,8 C 17,8 C 11,7 C 66 % 1016,8 hPa 0,0 l/m 2 min 0 min 316 W/m 29,0 km/h (5 Bft) 93,62 %
01.11.2022 14:30 16,9 C 17,8 C 11,7 C 66 % 1016,8 hPa 0,0 l/m 2 min 0 min 296 W/m 22,5 km/h (4 Bft) 93,62 %
01.11.2022 14:32 16,9 C 17,8 C 11,7 C 66 % 1016,8 hPa 0,0 l/m 2 min 0 min 294 W/m 29,0 km/h (5 Bft) 93,48 %
01.11.2022 14:34 16,9 C 17,8 C 11,7 C 66 % 1016,8 hPa 0,0 l/m 2 min 0 min 308 W/m 32,2 km/h (5 Bft) 95,74 %
01.11.2022 14:36 16,9 C 18,3 C 11,7 C 66 % 1016,8 hPa 0,0 l/m 2 min 0 min 305 W/m 35,4 km/h (5 Bft) 95,74 %
01.11.2022 14:38 16,9 C 17,8 C 11,7 C 66 % 1016,7 hPa 0,0 l/m 2 min 0 min 299 W/m 29,0 km/h (5 Bft) 97,87 %
01.11.2022 14:40 16,8 C 17,8 C 11,7 C 66 % 1016,6 hPa 0,0 l/m 2 min 0 min 295 W/m 19,3 km/h (3 Bft) 97,87 %
01.11.2022 14:42 16,8 C 18,3 C 11,7 C 67 % 1016,6 hPa 0,0 l/m 2 min 0 min 293 W/m 22,5 km/h (4 Bft) 97,87 %
01.11.2022 14:44 16,8 C 17,8 C 11,7 C 67 % 1016,6 hPa 0,0 l/m 2 min 0 min 285 W/m 25,7 km/h (4 Bft) 97,83 %
01.11.2022 14:46 16,8 C 17,8 C 11,7 C 67 % 1016,6 hPa 0,0 l/m 2 min 0 min 241 W/m 19,3 km/h (3 Bft) 97,87 %
01.11.2022 14:48 16,9 C 17,2 C 11,7 C 67 % 1016,6 hPa 0,0 l/m 2 min 0 min 277 W/m 22,5 km/h (4 Bft) 97,87 %
01.11.2022 14:50 16,9 C 17,2 C 11,7 C 67 % 1016,7 hPa 0,0 l/m 2 min 0 min 272 W/m 22,5 km/h (4 Bft) 97,87 %
01.11.2022 14:52 16,8 C 16,7 C 11,7 C 66 % 1016,6 hPa 0,0 l/m 2 min 0 min 268 W/m 29,0 km/h (5 Bft) 97,87 %
01.11.2022 14:54 16,8 C 16,7 C 11,7 C 66 % 1016,7 hPa 0,0 l/m 2 min 0 min 265 W/m 45,1 km/h (6 Bft) 97,87 %
01.11.2022 14:56 16,8 C 16,7 C 11,7 C 67 % 1016,5 hPa 0,0 l/m 2 min 0 min 262 W/m 16,1 km/h (3 Bft) 97,83 %
01.11.2022 14:58 16,8 C 16,7 C 11,7 C 67 % 1016,5 hPa 0,0 l/m 2 min 0 min 256 W/m 19,3 km/h (3 Bft) 95,74 %
01.11.2022 15:00 16,8 C 16,1 C 11,7 C 67 % 1016,5 hPa 0,0 l/m 2 min 0 min 234 W/m 22,5 km/h (4 Bft) 97,87 %
01.11.2022 15:02 16,8 C 16,1 C 11,7 C 67 % 1016,6 hPa 0,0 l/m 2 min 0 min 208 W/m 22,5 km/h (4 Bft) 100,00 %
01.11.2022 15:04 16,8 C 16,1 C 11,7 C 66 % 1016,6 hPa 0,0 l/m 2 min 0 min 224 W/m 38,6 km/h (5 Bft) 100,00 %
01.11.2022 15:06 16,8 C 16,1 C 11,7 C 66 % 1016,6 hPa 0,0 l/m 2 min 0 min 199 W/m 32,2 km/h (5 Bft) 100,00 %
01.11.2022 15:08 16,7 C 16,1 C 11,7 C 67 % 1016,6 hPa 0,0 l/m 2 min 0 min 167 W/m 29,0 km/h (5 Bft) 100,00 %
01.11.2022 15:10 16,7 C 16,1 C 11,7 C 66 % 1016,8 hPa 0,0 l/m 2 min 0 min 184 W/m 54,7 km/h (7 Bft) 97,87 %
01.11.2022 15:12 16,6 C 15,6 C 11,7 C 66 % 1016,7 hPa 0,0 l/m 2 min 0 min 219 W/m 41,8 km/h (6 Bft) 100,00 %
01.11.2022 15:14 16,6 C 15,6 C 11,7 C 66 % 1016,7 hPa 0,0 l/m 2 min 0 min 214 W/m 35,4 km/h (5 Bft) 100,00 %
01.11.2022 15:16 16,6 C 15,6 C 11,7 C 66 % 1016,8 hPa 0,0 l/m 2 min 0 min 208 W/m 45,1 km/h (6 Bft) 100,00 %
01.11.2022 15:18 16,5 C 15,6 C 11,7 C 66 % 1016,8 hPa 0,0 l/m 2 min 0 min 202 W/m 38,6 km/h (5 Bft) 100,00 %
01.11.2022 15:20 16,5 C 15,6 C 11,7 C 66 % 1016,7 hPa 0,0 l/m 2 min 0 min 199 W/m 22,5 km/h (4 Bft) 100,00 %
01.11.2022 15:22 16,4 C 15,6 C 11,7 C 66 % 1016,8 hPa 0,0 l/m 2 min 0 min 190 W/m 29,0 km/h (5 Bft) 100,00 %
01.11.2022 15:24 16,4 C 15,6 C 11,7 C 66 % 1016,8 hPa 0,0 l/m 2 min 0 min 128 W/m 38,6 km/h (5 Bft) 97,87 %
01.11.2022 15:26 16,4 C 15,6 C 11,7 C 66 % 1016,8 hPa 0,0 l/m 2 min 0 min 138 W/m 25,7 km/h (4 Bft) 100,00 %
01.11.2022 15:28 16,4 C 15,6 C 11,7 C 66 % 1016,8 hPa 0,0 l/m 2 min 0 min 165 W/m 35,4 km/h (5 Bft) 100,00 %
01.11.2022 15:30 16,3 C 15,6 C 11,7 C 66 % 1016,7 hPa 0,0 l/m 2 min 0 min 156 W/m 51,5 km/h (7 Bft) 100,00 %
01.11.2022 15:32 16,3 C 15,6 C 11,7 C 66 % 1016,7 hPa 0,0 l/m 2 min 0 min 164 W/m 29,0 km/h (5 Bft) 100,00 %
01.11.2022 15:34 16,3 C 15,6 C 11,7 C 67 % 1016,7 hPa 0,0 l/m 2 min 0 min 157 W/m 25,7 km/h (4 Bft) 97,87 %
01.11.2022 15:36 16,2 C 15,6 C 11,1 C 67 % 1016,7 hPa 0,0 l/m 0 min 0 min 96 W/m 25,7 km/h (4 Bft) 100,00 %
01.11.2022 15:38 16,2 C 15,6 C 11,1 C 67 % 1016,7 hPa 0,0 l/m 0 min 0 min 44 W/m 35,4 km/h (5 Bft) 100,00 %
01.11.2022 15:40 16,2 C 15,6 C 11,1 C 67 % 1016,7 hPa 0,0 l/m 0 min 0 min 42 W/m 32,2 km/h (5 Bft) 100,00 %
01.11.2022 15:42 16,2 C 15,6 C 11,1 C 67 % 1016,8 hPa 0,0 l/m 0 min 0 min 41 W/m 32,2 km/h (5 Bft) 100,00 %
01.11.2022 15:44 16,2 C 15,6 C 11,1 C 67 % 1016,8 hPa 0,0 l/m 0 min 0 min 40 W/m 25,7 km/h (4 Bft) 100,00 %
01.11.2022 15:46 16,1 C 15,6 C 11,1 C 67 % 1016,9 hPa 0,0 l/m 0 min 0 min 40 W/m 41,8 km/h (6 Bft) 100,00 %
01.11.2022 15:48 16,1 C 15,6 C 11,1 C 67 % 1016,7 hPa 0,0 l/m 0 min 0 min 39 W/m 38,6 km/h (5 Bft) 100,00 %
01.11.2022 15:50 16,1 C 15,6 C 11,1 C 67 % 1016,7 hPa 0,0 l/m 0 min 0 min 39 W/m 22,5 km/h (4 Bft) 100,00 %
01.11.2022 15:52 16,1 C 15,6 C 11,1 C 67 % 1016,8 hPa 0,0 l/m 0 min 0 min 37 W/m 29,0 km/h (5 Bft) 97,87 %
01.11.2022 15:54 16,1 C 15,6 C 11,1 C 67 % 1016,8 hPa 0,0 l/m 0 min 0 min 37 W/m 25,7 km/h (4 Bft) 97,87 %
01.11.2022 15:56 16,1 C 15,6 C 11,1 C 67 % 1016,8 hPa 0,0 l/m 0 min 0 min 36 W/m 16,1 km/h (3 Bft) 97,83 %
01.11.2022 15:58 16,1 C 15,6 C 11,1 C 67 % 1016,8 hPa 0,0 l/m 0 min 0 min 35 W/m 35,4 km/h (5 Bft) 100,00 %
01.11.2022 16:00 16,1 C 15,0 C 11,1 C 67 % 1016,8 hPa 0,0 l/m 0 min 0 min 35 W/m 22,5 km/h (4 Bft) 100,00 %
01.11.2022 16:02 16,1 C 15,0 C 11,1 C 67 % 1016,8 hPa 0,0 l/m 0 min 0 min 33 W/m 19,3 km/h (3 Bft) 100,00 %
01.11.2022 16:04 16,1 C 15,0 C 11,1 C 68 % 1016,9 hPa 0,0 l/m 0 min 0 min 33 W/m 22,5 km/h (4 Bft) 100,00 %
01.11.2022 16:06 16,1 C 15,0 C 11,1 C 68 % 1016,9 hPa 0,0 l/m 0 min 0 min 32 W/m 16,1 km/h (3 Bft) 100,00 %
01.11.2022 16:08 16,0 C 15,0 C 11,1 C 68 % 1016,9 hPa 0,0 l/m 0 min 0 min 32 W/m 19,3 km/h (3 Bft) 100,00 %
01.11.2022 16:10 16,0 C 15,0 C 11,1 C 68 % 1016,8 hPa 0,0 l/m 0 min 0 min 31 W/m 19,3 km/h (3 Bft) 97,83 %
01.11.2022 16:12 15,9 C 15,0 C 11,1 C 68 % 1016,9 hPa 0,0 l/m 0 min 0 min 30 W/m 16,1 km/h (3 Bft) 97,87 %
01.11.2022 16:14 15,9 C 15,0 C 11,1 C 68 % 1016,9 hPa 0,0 l/m 0 min 0 min 28 W/m 19,3 km/h (3 Bft) 97,87 %
01.11.2022 16:16 15,9 C 15,0 C 11,1 C 67 % 1016,9 hPa 0,0 l/m 0 min 0 min 28 W/m 29,0 km/h (5 Bft) 97,87 %
01.11.2022 16:18 15,9 C 15,0 C 11,1 C 67 % 1016,8 hPa 0,0 l/m 0 min 0 min 27 W/m 35,4 km/h (5 Bft) 97,87 %
01.11.2022 16:20 15,9 C 15,0 C 11,1 C 67 % 1016,9 hPa 0,0 l/m 0 min 0 min 26 W/m 32,2 km/h (5 Bft) 97,83 %
01.11.2022 16:22 15,8 C 15,0 C 11,1 C 67 % 1016,9 hPa 0,0 l/m 0 min 0 min 25 W/m 38,6 km/h (5 Bft) 95,74 %
01.11.2022 16:24 15,8 C 15,0 C 11,1 C 67 % 1016,9 hPa 0,0 l/m 0 min 0 min 25 W/m 25,7 km/h (4 Bft) 93,62 %
01.11.2022 16:26 15,8 C 15,0 C 11,1 C 67 % 1016,9 hPa 0,0 l/m 0 min 0 min 23 W/m 29,0 km/h (5 Bft) 93,62 %
01.11.2022 16:28 15,8 C 15,0 C 11,1 C 68 % 1016,9 hPa 0,0 l/m 0 min 0 min 23 W/m 29,0 km/h (5 Bft) 95,74 %
01.11.2022 16:30 15,8 C 15,0 C 11,1 C 68 % 1016,9 hPa 0,0 l/m 0 min 0 min 21 W/m 22,5 km/h (4 Bft) 95,74 %
01.11.2022 16:32 15,7 C 14,4 C 11,1 C 68 % 1016,9 hPa 0,0 l/m 0 min 0 min 21 W/m 16,1 km/h (3 Bft) 95,65 %
01.11.2022 16:34 15,7 C 14,4 C 10,6 C 68 % 1016,8 hPa 0,0 l/m 0 min 0 min 19 W/m 25,7 km/h (4 Bft) 93,88 %
01.11.2022 16:36 15,6 C 14,4 C 10,6 C 68 % 1016,8 hPa 0,0 l/m 0 min 0 min 19 W/m 25,7 km/h (4 Bft) 95,74 %
01.11.2022 16:38 15,6 C 14,4 C 10,6 C 68 % 1016,8 hPa 0,0 l/m 0 min 0 min 18 W/m 9,7 km/h (2 Bft) 95,74 %
01.11.2022 16:40 15,6 C 14,4 C 10,6 C 69 % 1016,8 hPa 0,0 l/m 0 min 0 min 17 W/m 6,4 km/h (2 Bft) 89,36 %
01.11.2022 16:42 15,6 C 14,4 C 10,6 C 68 % 1016,8 hPa 0,0 l/m 0 min 0 min 16 W/m 35,4 km/h (5 Bft) 95,74 %
01.11.2022 16:44 15,5 C 14,4 C 10,6 C 68 % 1016,8 hPa 0,0 l/m 0 min 0 min 15 W/m 25,7 km/h (4 Bft) 97,87 %
01.11.2022 16:46 15,5 C 14,4 C 10,6 C 69 % 1016,8 hPa 0,0 l/m 0 min 0 min 14 W/m 19,3 km/h (3 Bft) 97,83 %
01.11.2022 16:48 15,4 C 14,4 C 10,6 C 69 % 1016,8 hPa 0,0 l/m 0 min 0 min 12 W/m 22,5 km/h (4 Bft) 95,74 %
01.11.2022 16:50 15,4 C 14,4 C 10,6 C 69 % 1016,8 hPa 0,0 l/m 0 min 0 min 12 W/m 22,5 km/h (4 Bft) 97,87 %
01.11.2022 16:52 15,4 C 14,4 C 10,6 C 69 % 1016,8 hPa 0,0 l/m 0 min 0 min 11 W/m 25,7 km/h (4 Bft) 97,87 %
01.11.2022 16:54 15,3 C 14,4 C 10,6 C 69 % 1016,8 hPa 0,0 l/m 0 min 0 min 11 W/m 16,1 km/h (3 Bft) 95,74 %
01.11.2022 16:56 15,3 C 14,4 C 10,6 C 70 % 1016,9 hPa 0,0 l/m 0 min 0 min 10 W/m 19,3 km/h (3 Bft) 91,49 %
01.11.2022 16:58 15,3 C 13,9 C 10,6 C 70 % 1016,8 hPa 0,0 l/m 0 min 0 min 9 W/m 16,1 km/h (3 Bft) 95,65 %
01.11.2022 17:00 15,2 C 13,9 C 10,6 C 70 % 1016,8 hPa 0,0 l/m 0 min 0 min 8 W/m 19,3 km/h (3 Bft) 95,74 %
01.11.2022 17:02 15,2 C 13,9 C 10,6 C 70 % 1016,8 hPa 0,0 l/m 0 min 0 min 7 W/m 12,9 km/h (3 Bft) 93,62 %
01.11.2022 17:04 15,1 C 13,9 C 10,0 C 70 % 1016,8 hPa 0,0 l/m 0 min 0 min 6 W/m 12,9 km/h (3 Bft) 95,74 %
01.11.2022 17:06 15,1 C 13,9 C 10,0 C 70 % 1016,8 hPa 0,0 l/m 0 min 0 min 5 W/m 16,1 km/h (3 Bft) 95,74 %
01.11.2022 17:08 15,0 C 13,9 C 10,0 C 70 % 1016,8 hPa 0,0 l/m 0 min 0 min 4 W/m 12,9 km/h (3 Bft) 95,74 %
01.11.2022 17:10 14,9 C 13,9 C 10,0 C 70 % 1016,8 hPa 0,0 l/m 0 min 0 min 0 W/m 12,9 km/h (3 Bft) 97,83 %
01.11.2022 17:12 14,9 C 13,9 C 10,0 C 71 % 1016,8 hPa 0,0 l/m 0 min 0 min 0 W/m 16,1 km/h (3 Bft) 95,74 %
01.11.2022 17:14 14,8 C 13,9 C 10,0 C 71 % 1016,8 hPa 0,0 l/m 0 min 0 min 0 W/m 19,3 km/h (3 Bft) 97,87 %
01.11.2022 17:16 14,8 C 13,9 C 10,0 C 71 % 1016,8 hPa 0,0 l/m 0 min 0 min 0 W/m 19,3 km/h (3 Bft) 95,74 %
01.11.2022 17:18 14,8 C 13,9 C 10,0 C 71 % 1016,9 hPa 0,0 l/m 0 min 0 min 0 W/m 12,9 km/h (3 Bft) 97,87 %
01.11.2022 17:20 14,7 C 13,3 C 10,0 C 71 % 1016,9 hPa 0,0 l/m 0 min 0 min 0 W/m 16,1 km/h (3 Bft) 97,87 %
01.11.2022 17:22 14,7 C 13,3 C 10,0 C 71 % 1016,9 hPa 0,0 l/m 0 min 0 min 0 W/m 12,9 km/h (3 Bft) 97,83 %
01.11.2022 17:24 14,6 C 13,3 C 10,0 C 71 % 1016,9 hPa 0,0 l/m 0 min 0 min 0 W/m 12,9 km/h (3 Bft) 97,87 %
01.11.2022 17:26 14,6 C 13,3 C 10,0 C 71 % 1016,9 hPa 0,0 l/m 0 min 0 min 0 W/m 6,4 km/h (2 Bft) 95,74 %
01.11.2022 17:28 14,6 C 13,3 C 10,0 C 72 % 1017,0 hPa 0,0 l/m 0 min 0 min 0 W/m 9,7 km/h (2 Bft) 93,62 %
01.11.2022 17:30 14,5 C 13,3 C 9,4 C 72 % 1017,0 hPa 0,0 l/m 0 min 0 min 0 W/m 9,7 km/h (2 Bft) 97,87 %
01.11.2022 17:32 14,4 C 13,3 C 9,4 C 72 % 1017,0 hPa 0,0 l/m 0 min 0 min 0 W/m 12,9 km/h (3 Bft) 97,87 %
01.11.2022 17:34 14,4 C 13,3 C 9,4 C 72 % 1017,0 hPa 0,0 l/m 0 min 0 min 0 W/m 6,4 km/h (2 Bft) 97,83 %
01.11.2022 17:36 14,3 C 13,3 C 9,4 C 72 % 1017,0 hPa 0,0 l/m 0 min 0 min 0 W/m 16,1 km/h (3 Bft) 100,00 %
01.11.2022 17:38 14,3 C 13,3 C 9,4 C 72 % 1017,0 hPa 0,0 l/m 0 min 0 min 0 W/m 16,1 km/h (3 Bft) 100,00 %
01.11.2022 17:40 14,3 C 13,3 C 9,4 C 73 % 1017,0 hPa 0,0 l/m 0 min 0 min 0 W/m 12,9 km/h (3 Bft) 97,87 %
01.11.2022 17:42 14,3 C 13,3 C 9,4 C 73 % 1017,1 hPa 0,0 l/m 0 min 0 min 0 W/m 9,7 km/h (2 Bft) 100,00 %
01.11.2022 17:44 14,3 C 12,8 C 9,4 C 73 % 1017,1 hPa 0,0 l/m 0 min 0 min 0 W/m 12,9 km/h (3 Bft) 100,00 %
01.11.2022 17:46 14,3 C 12,8 C 9,4 C 73 % 1017,1 hPa 0,0 l/m 0 min 0 min 0 W/m 12,9 km/h (3 Bft) 97,83 %
01.11.2022 17:48 14,2 C 12,8 C 9,4 C 73 % 1017,1 hPa 0,0 l/m 0 min 0 min 0 W/m 6,4 km/h (2 Bft) 100,00 %
01.11.2022 17:50 14,2 C 12,8 C 9,4 C 73 % 1017,1 hPa 0,0 l/m 0 min 0 min 0 W/m 6,4 km/h (2 Bft) 97,87 %
01.11.2022 17:52 14,1 C 12,8 C 9,4 C 73 % 1017,2 hPa 0,0 l/m 0 min 0 min 0 W/m 12,9 km/h (3 Bft) 97,87 %
01.11.2022 17:54 14,1 C 12,8 C 9,4 C 74 % 1017,1 hPa 0,0 l/m 0 min 0 min 0 W/m 12,9 km/h (3 Bft) 100,00 %
01.11.2022 17:56 14,0 C 12,8 C 9,4 C 74 % 1017,1 hPa 0,0 l/m 0 min 0 min 0 W/m 3,2 km/h (1 Bft) 97,87 %
01.11.2022 17:58 13,9 C 12,8 C 9,4 C 74 % 1017,1 hPa 0,0 l/m 0 min 0 min 0 W/m 6,4 km/h (2 Bft) 97,83 %
01.11.2022 18:00 13,9 C 12,8 C 9,4 C 74 % 1017,1 hPa 0,0 l/m 0 min 0 min 0 W/m 12,9 km/h (3 Bft) 97,87 %
01.11.2022 18:02 13,9 C 12,8 C 9,4 C 74 % 1017,2 hPa 0,0 l/m 0 min 0 min 0 W/m 12,9 km/h (3 Bft) 100,00 %
01.11.2022 18:04 13,9 C 12,8 C 9,4 C 74 % 1017,2 hPa 0,0 l/m 0 min 0 min 0 W/m 6,4 km/h (2 Bft) 97,87 %
01.11.2022 18:08 13,8 C 12,8 C 9,4 C 74 % 1017,2 hPa 0,0 l/m 0 min 0 min 0 W/m 9,7 km/h (2 Bft) 97,87 %
01.11.2022 18:10 13,8 C 12,8 C 9,4 C 74 % 1017,2 hPa 0,0 l/m 0 min 0 min 0 W/m 16,1 km/h (3 Bft) 93,48 %
01.11.2022 18:12 13,7 C 12,8 C 9,4 C 74 % 1017,3 hPa 0,0 l/m 0 min 0 min 0 W/m 16,1 km/h (3 Bft) 95,74 %
01.11.2022 18:14 13,7 C 12,8 C 9,4 C 74 % 1017,3 hPa 0,0 l/m 0 min 0 min 0 W/m 22,5 km/h (4 Bft) 97,87 %
01.11.2022 18:16 13,7 C 12,8 C 9,4 C 75 % 1017,3 hPa 0,0 l/m 0 min 0 min 0 W/m 12,9 km/h (3 Bft) 95,74 %
01.11.2022 18:18 13,7 C 12,8 C 9,4 C 75 % 1017,3 hPa 0,0 l/m 0 min 0 min 0 W/m 12,9 km/h (3 Bft) 97,87 %
01.11.2022 18:20 13,7 C 12,8 C 9,4 C 74 % 1017,3 hPa 0,0 l/m 0 min 0 min 0 W/m 16,1 km/h (3 Bft) 95,74 %
01.11.2022 18:22 13,7 C 12,8 C 9,4 C 75 % 1017,2 hPa 0,0 l/m 0 min 0 min 0 W/m 16,1 km/h (3 Bft) 95,65 %
01.11.2022 18:24 13,7 C 12,8 C 9,4 C 75 % 1017,2 hPa 0,0 l/m 0 min 0 min 0 W/m 6,4 km/h (2 Bft) 97,87 %
01.11.2022 18:26 13,7 C 12,8 C 9,4 C 75 % 1017,2 hPa 0,0 l/m 0 min 0 min 0 W/m 16,1 km/h (3 Bft) 97,87 %
01.11.2022 18:28 13,7 C 12,8 C 8,9 C 75 % 1017,3 hPa 0,0 l/m 0 min 0 min 0 W/m 12,9 km/h (3 Bft) 95,74 %
01.11.2022 18:30 13,7 C 12,8 C 8,9 C 75 % 1017,2 hPa 0,0 l/m 0 min 0 min 0 W/m 16,1 km/h (3 Bft) 97,87 %
01.11.2022 18:32 13,6 C 12,8 C 8,9 C 75 % 1017,3 hPa 0,0 l/m 0 min 0 min 0 W/m 19,3 km/h (3 Bft) 97,87 %
01.11.2022 18:34 13,6 C 12,8 C 8,9 C 75 % 1017,3 hPa 0,0 l/m 0 min 0 min 0 W/m 9,7 km/h (2 Bft) 95,65 %
01.11.2022 18:36 13,6 C 12,8 C 8,9 C 75 % 1017,3 hPa 0,0 l/m 0 min 0 min 0 W/m 12,9 km/h (3 Bft) 95,74 %
01.11.2022 18:38 13,6 C 12,8 C 8,9 C 75 % 1017,3 hPa 0,0 l/m 0 min 0 min 0 W/m 3,2 km/h (1 Bft) 97,87 %
01.11.2022 18:40 13,6 C 12,8 C 8,9 C 75 % 1017,3 hPa 0,0 l/m 0 min 0 min 0 W/m 12,9 km/h (3 Bft) 95,74 %
01.11.2022 18:42 13,6 C 12,8 C 8,9 C 75 % 1017,2 hPa 0,0 l/m 0 min 0 min 0 W/m 12,9 km/h (3 Bft) 100,00 %
01.11.2022 18:44 13,6 C 12,8 C 8,9 C 75 % 1017,2 hPa 0,0 l/m 0 min 0 min 0 W/m 12,9 km/h (3 Bft) 100,00 %
01.11.2022 18:46 13,6 C 12,8 C 8,9 C 75 % 1017,3 hPa 0,0 l/m 0 min 0 min 0 W/m 16,1 km/h (3 Bft) 97,83 %
01.11.2022 18:48 13,6 C 12,8 C 8,9 C 75 % 1017,3 hPa 0,0 l/m 0 min 0 min 0 W/m 25,7 km/h (4 Bft) 100,00 %
01.11.2022 18:50 13,6 C 12,8 C 8,9 C 75 % 1017,3 hPa 0,0 l/m 0 min 0 min 0 W/m 22,5 km/h (4 Bft) 100,00 %
01.11.2022 18:52 13,6 C 12,8 C 8,9 C 75 % 1017,2 hPa 0,0 l/m 0 min 0 min 0 W/m 16,1 km/h (3 Bft) 97,87 %
01.11.2022 18:54 13,6 C 12,8 C 8,9 C 75 % 1017,2 hPa 0,0 l/m 0 min 0 min 0 W/m 9,7 km/h (2 Bft) 100,00 %
01.11.2022 18:56 13,6 C 12,8 C 8,9 C 75 % 1017,2 hPa 0,0 l/m 0 min 0 min 0 W/m 6,4 km/h (2 Bft) 100,00 %
01.11.2022 18:58 13,5 C 12,2 C 8,9 C 76 % 1017,2 hPa 0,0 l/m 0 min 0 min 0 W/m 0,0 km/h (0 Bft) 97,83 %
01.11.2022 19:00 13,5 C 12,2 C 8,9 C 75 % 1017,2 hPa 0,0 l/m 0 min 0 min 0 W/m 19,3 km/h (3 Bft) 100,00 %
01.11.2022 19:02 13,4 C 12,2 C 8,9 C 76 % 1017,2 hPa 0,0 l/m 0 min 0 min 0 W/m 12,9 km/h (3 Bft) 100,00 %
01.11.2022 19:04 13,4 C 12,2 C 8,9 C 76 % 1017,2 hPa 0,0 l/m 0 min 0 min 0 W/m 16,1 km/h (3 Bft) 97,87 %
01.11.2022 19:10 13,4 C 12,2 C 8,9 C 76 % 1017,1 hPa 0,0 l/m 0 min 0 min 0 W/m 9,7 km/h (2 Bft) 100,00 %
01.11.2022 19:12 13,3 C 12,2 C 8,9 C 76 % 1017,1 hPa 0,0 l/m 0 min 0 min 0 W/m 16,1 km/h (3 Bft) 93,62 %
01.11.2022 19:14 13,3 C 12,2 C 8,9 C 76 % 1017,1 hPa 0,0 l/m 0 min 0 min 0 W/m 16,1 km/h (3 Bft) 100,00 %
01.11.2022 19:16 13,3 C 12,2 C 8,9 C 76 % 1017,2 hPa 0,0 l/m 0 min 0 min 0 W/m 16,1 km/h (3 Bft) 95,74 %
01.11.2022 19:18 13,3 C 12,2 C 8,9 C 76 % 1017,1 hPa 0,0 l/m 0 min 0 min 0 W/m 12,9 km/h (3 Bft) 97,87 %
01.11.2022 19:20 13,3 C 12,2 C 8,9 C 76 % 1017,2 hPa 0,0 l/m 0 min 0 min 0 W/m 16,1 km/h (3 Bft) 93,48 %
01.11.2022 19:22 13,3 C 12,2 C 8,9 C 76 % 1017,2 hPa 0,0 l/m 0 min 0 min 0 W/m 9,7 km/h (2 Bft) 93,62 %
01.11.2022 19:24 13,2 C 12,2 C 8,9 C 77 % 1017,1 hPa 0,0 l/m 0 min 0 min 0 W/m 16,1 km/h (3 Bft) 95,74 %
01.11.2022 19:26 13,2 C 12,2 C 8,9 C 77 % 1017,1 hPa 0,0 l/m 0 min 0 min 0 W/m 19,3 km/h (3 Bft) 95,74 %
01.11.2022 19:28 13,2 C 12,2 C 8,9 C 77 % 1017,2 hPa 0,0 l/m 0 min 0 min 0 W/m 6,4 km/h (2 Bft) 95,74 %
01.11.2022 19:30 13,2 C 12,2 C 8,9 C 77 % 1017,2 hPa 0,0 l/m 0 min 0 min 0 W/m 6,4 km/h (2 Bft) 91,30 %
01.11.2022 19:32 13,2 C 12,2 C 8,9 C 77 % 1017,2 hPa 0,0 l/m 0 min 0 min 0 W/m 19,3 km/h (3 Bft) 93,62 %
01.11.2022 19:34 13,1 C 12,2 C 8,9 C 77 % 1017,2 hPa 0,0 l/m 0 min 0 min 0 W/m 9,7 km/h (2 Bft) 93,62 %
01.11.2022 19:36 13,1 C 12,2 C 8,9 C 77 % 1017,2 hPa 0,0 l/m 0 min 0 min 0 W/m 6,4 km/h (2 Bft) 93,62 %
01.11.2022 19:38 13,1 C 12,2 C 8,9 C 77 % 1017,2 hPa 0,0 l/m 0 min 0 min 0 W/m 16,1 km/h (3 Bft) 93,62 %
01.11.2022 19:40 13,1 C 12,2 C 8,9 C 77 % 1017,2 hPa 0,0 l/m 0 min 0 min 0 W/m 12,9 km/h (3 Bft) 95,74 %
01.11.2022 19:42 13,1 C 12,2 C 8,9 C 77 % 1017,2 hPa 0,0 l/m 0 min 0 min 0 W/m 12,9 km/h (3 Bft) 93,62 %
01.11.2022 19:44 13,1 C 12,2 C 8,9 C 77 % 1017,2 hPa 0,0 l/m 0 min 0 min 0 W/m 12,9 km/h (3 Bft) 93,48 %
01.11.2022 19:46 13,1 C 12,2 C 8,9 C 77 % 1017,2 hPa 0,0 l/m 0 min 0 min 0 W/m 12,9 km/h (3 Bft) 95,74 %
01.11.2022 19:48 13,1 C 12,2 C 8,9 C 77 % 1017,2 hPa 0,0 l/m 0 min 0 min 0 W/m 22,5 km/h (4 Bft) 95,74 %
01.11.2022 19:50 13,1 C 12,2 C 8,9 C 77 % 1017,2 hPa 0,0 l/m 0 min 0 min 0 W/m 12,9 km/h (3 Bft) 95,74 %
01.11.2022 19:52 13,1 C 12,2 C 8,9 C 77 % 1017,2 hPa 0,0 l/m 0 min 0 min 0 W/m 12,9 km/h (3 Bft) 93,62 %
01.11.2022 19:54 13,1 C 12,2 C 8,9 C 77 % 1017,2 hPa 0,0 l/m 0 min 0 min 0 W/m 12,9 km/h (3 Bft) 93,48 %
01.11.2022 19:56 13,1 C 12,2 C 8,9 C 77 % 1017,2 hPa 0,0 l/m 0 min 0 min 0 W/m 16,1 km/h (3 Bft) 93,62 %
01.11.2022 19:58 13,1 C 12,2 C 8,9 C 77 % 1017,2 hPa 0,0 l/m 0 min 0 min 0 W/m 16,1 km/h (3 Bft) 91,49 %
01.11.2022 20:00 13,1 C 12,2 C 8,9 C 77 % 1017,2 hPa 0,0 l/m 0 min 0 min 0 W/m 22,5 km/h (4 Bft) 91,49 %
01.11.2022 20:02 13,1 C 12,2 C 8,9 C 77 % 1017,2 hPa 0,0 l/m 0 min 0 min 0 W/m 12,9 km/h (3 Bft) 95,74 %
01.11.2022 20:04 13,1 C 12,2 C 8,9 C 77 % 1017,2 hPa 0,0 l/m 0 min 0 min 0 W/m 16,1 km/h (3 Bft) 95,74 %
01.11.2022 20:06 13,1 C 12,2 C 8,9 C 77 % 1017,2 hPa 0,0 l/m 0 min 0 min 0 W/m 22,5 km/h (4 Bft) 97,83 %
01.11.2022 20:08 13,1 C 12,2 C 8,9 C 78 % 1017,2 hPa 0,0 l/m 0 min 0 min 0 W/m 9,7 km/h (2 Bft) 95,74 %
01.11.2022 20:10 13,0 C 12,2 C 8,3 C 78 % 1017,2 hPa 0,0 l/m 0 min 0 min 0 W/m 16,1 km/h (3 Bft) 97,87 %
01.11.2022 20:12 13,0 C 12,2 C 8,3 C 78 % 1017,2 hPa 0,0 l/m 0 min 0 min 0 W/m 12,9 km/h (3 Bft) 95,74 %
01.11.2022 20:14 13,0 C 12,2 C 8,3 C 78 % 1017,2 hPa 0,0 l/m 0 min 0 min 0 W/m 19,3 km/h (3 Bft) 97,87 %
01.11.2022 20:16 12,9 C 12,2 C 8,3 C 78 % 1017,2 hPa 0,0 l/m 0 min 0 min 0 W/m 16,1 km/h (3 Bft) 93,62 %
01.11.2022 20:18 12,9 C 12,2 C 8,3 C 78 % 1017,1 hPa 0,0 l/m 0 min 0 min 0 W/m 16,1 km/h (3 Bft) 97,83 %
01.11.2022 20:20 12,9 C 12,2 C 8,3 C 78 % 1017,1 hPa 0,0 l/m 0 min 0 min 0 W/m 12,9 km/h (3 Bft) 97,87 %
01.11.2022 20:22 12,9 C 11,7 C 8,3 C 78 % 1017,1 hPa 0,0 l/m 0 min 0 min 0 W/m 22,5 km/h (4 Bft) 97,87 %
01.11.2022 20:24 12,9 C 11,7 C 8,3 C 78 % 1017,1 hPa 0,0 l/m 0 min 0 min 0 W/m 16,1 km/h (3 Bft) 97,87 %
01.11.2022 20:26 12,9 C 11,7 C 8,3 C 78 % 1017,0 hPa 0,0 l/m 0 min 0 min 0 W/m 16,1 km/h (3 Bft) 95,74 %
01.11.2022 20:28 12,9 C 11,7 C 8,3 C 78 % 1017,1 hPa 0,0 l/m 0 min 0 min 0 W/m 12,9 km/h (3 Bft) 100,00 %
01.11.2022 20:30 12,8 C 11,7 C 8,3 C 78 % 1017,0 hPa 0,0 l/m 0 min 0 min 0 W/m 16,1 km/h (3 Bft) 100,00 %
01.11.2022 20:32 12,8 C 12,2 C 8,3 C 78 % 1017,0 hPa 0,0 l/m 0 min 0 min 0 W/m 19,3 km/h (3 Bft) 100,00 %
01.11.2022 20:34 12,8 C 12,2 C 8,3 C 78 % 1017,1 hPa 0,0 l/m 0 min 0 min 0 W/m 12,9 km/h (3 Bft) 100,00 %
01.11.2022 20:36 12,8 C 12,2 C 8,3 C 78 % 1017,1 hPa 0,0 l/m 0 min 0 min 0 W/m 12,9 km/h (3 Bft) 100,00 %
01.11.2022 20:38 12,8 C 12,2 C 8,3 C 78 % 1017,1 hPa 0,0 l/m 0 min 0 min 0 W/m 16,1 km/h (3 Bft) 100,00 %
01.11.2022 20:40 12,8 C 12,2 C 8,3 C 78 % 1017,1 hPa 0,0 l/m 0 min 0 min 0 W/m 25,7 km/h (4 Bft) 100,00 %
01.11.2022 20:42 12,8 C 11,7 C 8,3 C 78 % 1017,0 hPa 0,0 l/m 0 min 0 min 0 W/m 22,5 km/h (4 Bft) 100,00 %
01.11.2022 20:44 12,8 C 11,7 C 8,3 C 78 % 1017,1 hPa 0,0 l/m 0 min 0 min 0 W/m 19,3 km/h (3 Bft) 100,00 %
01.11.2022 20:46 12,8 C 11,7 C 8,3 C 78 % 1017,0 hPa 0,0 l/m 0 min 0 min 0 W/m 19,3 km/h (3 Bft) 97,87 %
01.11.2022 20:48 12,8 C 11,7 C 8,3 C 78 % 1017,1 hPa 0,0 l/m 0 min 0 min 0 W/m 29,0 km/h (5 Bft) 100,00 %
01.11.2022 20:50 12,8 C 11,7 C 8,3 C 78 % 1017,1 hPa 0,0 l/m 0 min 0 min 0 W/m 9,7 km/h (2 Bft) 100,00 %
01.11.2022 20:52 12,8 C 11,7 C 8,3 C 78 % 1017,0 hPa 0,0 l/m 0 min 0 min 0 W/m 9,7 km/h (2 Bft) 97,87 %
01.11.2022 20:54 12,7 C 11,7 C 8,3 C 79 % 1017,1 hPa 0,0 l/m 0 min 0 min 0 W/m 22,5 km/h (4 Bft) 100,00 %
01.11.2022 20:56 12,7 C 11,7 C 8,3 C 79 % 1017,1 hPa 0,0 l/m 0 min 0 min 0 W/m 12,9 km/h (3 Bft) 100,00 %
01.11.2022 20:58 12,7 C 11,7 C 8,3 C 79 % 1017,1 hPa 0,0 l/m 0 min 0 min 0 W/m 12,9 km/h (3 Bft) 100,00 %
01.11.2022 21:00 12,7 C 11,7 C 8,3 C 79 % 1017,1 hPa 0,0 l/m 0 min 0 min 0 W/m 9,7 km/h (2 Bft) 100,00 %
01.11.2022 21:02 12,7 C 11,7 C 8,3 C 79 % 1017,1 hPa 0,0 l/m 0 min 0 min 0 W/m 12,9 km/h (3 Bft) 100,00 %
01.11.2022 21:04 12,7 C 11,7 C 8,3 C 79 % 1017,2 hPa 0,0 l/m 0 min 0 min 0 W/m 12,9 km/h (3 Bft) 100,00 %
01.11.2022 21:06 12,7 C 11,7 C 8,3 C 79 % 1017,2 hPa 0,0 l/m 0 min 0 min 0 W/m 12,9 km/h (3 Bft) 100,00 %
01.11.2022 21:08 12,7 C 11,7 C 8,3 C 79 % 1017,1 hPa 0,0 l/m 0 min 0 min 0 W/m 12,9 km/h (3 Bft) 100,00 %
01.11.2022 21:10 12,7 C 11,7 C 8,3 C 79 % 1017,1 hPa 0,0 l/m 0 min 0 min 0 W/m 6,4 km/h (2 Bft) 100,00 %
01.11.2022 21:12 12,6 C 11,7 C 8,3 C 79 % 1017,1 hPa 0,0 l/m 0 min 0 min 0 W/m 6,4 km/h (2 Bft) 97,87 %
01.11.2022 21:14 12,6 C 11,7 C 8,3 C 79 % 1017,1 hPa 0,0 l/m 0 min 0 min 0 W/m 6,4 km/h (2 Bft) 97,87 %
01.11.2022 21:16 12,6 C 11,7 C 8,3 C 79 % 1017,1 hPa 0,0 l/m 0 min 0 min 0 W/m 9,7 km/h (2 Bft) 100,00 %
01.11.2022 21:18 12,6 C 11,7 C 8,3 C 79 % 1017,1 hPa 0,0 l/m 0 min 0 min 0 W/m 9,7 km/h (2 Bft) 100,00 %
01.11.2022 21:20 12,6 C 11,7 C 7,8 C 79 % 1017,1 hPa 0,0 l/m 0 min 0 min 0 W/m 12,9 km/h (3 Bft) 100,00 %
01.11.2022 21:22 12,5 C 11,7 C 7,8 C 79 % 1017,0 hPa 0,0 l/m 0 min 0 min 0 W/m 9,7 km/h (2 Bft) 100,00 %
01.11.2022 21:24 12,5 C 11,7 C 7,8 C 79 % 1017,1 hPa 0,0 l/m 0 min 0 min 0 W/m 6,4 km/h (2 Bft) 97,87 %
01.11.2022 21:26 12,4 C 11,7 C 7,8 C 79 % 1017,1 hPa 0,0 l/m 0 min 0 min 0 W/m 6,4 km/h (2 Bft) 100,00 %
01.11.2022 21:28 12,4 C 11,1 C 7,8 C 80 % 1017,1 hPa 0,0 l/m 0 min 0 min 0 W/m 9,7 km/h (2 Bft) 100,00 %
01.11.2022 21:30 12,4 C 11,1 C 7,8 C 80 % 1017,1 hPa 0,0 l/m 0 min 0 min 0 W/m 9,7 km/h (2 Bft) 100,00 %
01.11.2022 21:32 12,4 C 11,1 C 7,8 C 80 % 1017,1 hPa 0,0 l/m 0 min 0 min 0 W/m 6,4 km/h (2 Bft) 97,87 %
01.11.2022 21:34 12,3 C 11,1 C 7,8 C 80 % 1017,0 hPa 0,0 l/m 0 min 0 min 0 W/m 12,9 km/h (3 Bft) 97,87 %
01.11.2022 21:36 12,3 C 11,7 C 7,8 C 80 % 1017,0 hPa 0,0 l/m 0 min 0 min 0 W/m 19,3 km/h (3 Bft) 97,87 %
01.11.2022 21:38 12,3 C 11,7 C 7,8 C 80 % 1016,9 hPa 0,0 l/m 0 min 0 min 0 W/m 19,3 km/h (3 Bft) 97,87 %
01.11.2022 21:40 12,3 C 11,7 C 7,8 C 80 % 1017,0 hPa 0,0 l/m 0 min 0 min 0 W/m 16,1 km/h (3 Bft) 97,87 %
01.11.2022 21:42 12,3 C 11,7 C 7,8 C 80 % 1017,0 hPa 0,0 l/m 0 min 0 min 0 W/m 16,1 km/h (3 Bft) 100,00 %
01.11.2022 21:44 12,3 C 11,7 C 7,8 C 80 % 1017,0 hPa 0,0 l/m 0 min 0 min 0 W/m 6,4 km/h (2 Bft) 97,87 %
01.11.2022 21:46 12,3 C 11,7 C 7,8 C 80 % 1017,1 hPa 0,0 l/m 0 min 0 min 0 W/m 12,9 km/h (3 Bft) 97,87 %
01.11.2022 21:48 12,3 C 11,7 C 7,8 C 80 % 1017,0 hPa 0,0 l/m 0 min 0 min 0 W/m 9,7 km/h (2 Bft) 97,87 %
01.11.2022 21:50 12,3 C 11,7 C 7,8 C 80 % 1017,0 hPa 0,0 l/m 0 min 0 min 0 W/m 9,7 km/h (2 Bft) 95,74 %
01.11.2022 21:52 12,3 C 11,7 C 7,8 C 80 % 1017,0 hPa 0,0 l/m 0 min 0 min 0 W/m 6,4 km/h (2 Bft) 95,74 %
01.11.2022 21:54 12,3 C 11,7 C 7,8 C 80 % 1017,0 hPa 0,0 l/m 0 min 0 min 0 W/m 6,4 km/h (2 Bft) 95,65 %
01.11.2022 21:56 12,3 C 11,7 C 7,8 C 80 % 1017,1 hPa 0,0 l/m 0 min 0 min 0 W/m 9,7 km/h (2 Bft) 95,74 %
01.11.2022 21:58 12,3 C 11,7 C 7,8 C 80 % 1017,1 hPa 0,0 l/m 0 min 0 min 0 W/m 12,9 km/h (3 Bft) 95,74 %
01.11.2022 22:00 12,3 C 11,7 C 7,8 C 80 % 1017,1 hPa 0,0 l/m 0 min 0 min 0 W/m 12,9 km/h (3 Bft) 95,74 %
01.11.2022 22:02 12,3 C 11,7 C 7,8 C 80 % 1017,0 hPa 0,0 l/m 0 min 0 min 0 W/m 12,9 km/h (3 Bft) 95,74 %
01.11.2022 22:04 12,3 C 11,7 C 7,8 C 80 % 1017,1 hPa 0,0 l/m 0 min 0 min 0 W/m 12,9 km/h (3 Bft) 95,74 %
01.11.2022 22:06 12,3 C 11,7 C 7,8 C 80 % 1017,1 hPa 0,0 l/m 0 min 0 min 0 W/m 12,9 km/h (3 Bft) 95,65 %
01.11.2022 22:08 12,3 C 11,7 C 7,8 C 80 % 1017,1 hPa 0,0 l/m 0 min 0 min 0 W/m 12,9 km/h (3 Bft) 95,74 %
01.11.2022 22:10 12,3 C 11,7 C 7,8 C 80 % 1017,1 hPa 0,0 l/m 0 min 0 min 0 W/m 6,4 km/h (2 Bft) 95,74 %
01.11.2022 22:12 12,3 C 11,7 C 7,8 C 80 % 1017,1 hPa 0,0 l/m 0 min 0 min 0 W/m 12,9 km/h (3 Bft) 95,74 %
01.11.2022 22:14 12,3 C 11,7 C 7,8 C 80 % 1017,1 hPa 0,0 l/m 0 min 0 min 0 W/m 9,7 km/h (2 Bft) 95,74 %
01.11.2022 22:16 12,3 C 11,7 C 8,3 C 80 % 1017,1 hPa 0,0 l/m 0 min 0 min 0 W/m 19,3 km/h (3 Bft) 92,45 %
01.11.2022 22:18 12,3 C 11,7 C 8,3 C 80 % 1017,1 hPa 0,0 l/m 0 min 0 min 0 W/m 9,7 km/h (2 Bft) 97,87 %
01.11.2022 22:20 12,4 C 11,7 C 8,3 C 80 % 1017,1 hPa 0,0 l/m 0 min 0 min 0 W/m 12,9 km/h (3 Bft) 95,65 %
01.11.2022 22:22 12,4 C 11,7 C 8,3 C 80 % 1017,1 hPa 0,0 l/m 0 min 0 min 0 W/m 16,1 km/h (3 Bft) 95,74 %
01.11.2022 22:24 12,4 C 11,7 C 8,3 C 80 % 1017,0 hPa 0,0 l/m 0 min 0 min 0 W/m 12,9 km/h (3 Bft) 95,74 %
01.11.2022 22:26 12,4 C 11,7 C 8,3 C 80 % 1017,1 hPa 0,0 l/m 0 min 0 min 0 W/m 16,1 km/h (3 Bft) 93,62 %
01.11.2022 22:28 12,4 C 11,7 C 8,3 C 80 % 1017,1 hPa 0,0 l/m 0 min 0 min 0 W/m 12,9 km/h (3 Bft) 95,74 %
01.11.2022 22:30 12,4 C 11,7 C 8,3 C 80 % 1017,1 hPa 0,0 l/m 0 min 0 min 0 W/m 12,9 km/h (3 Bft) 95,74 %
01.11.2022 22:32 12,5 C 11,7 C 8,3 C 80 % 1017,1 hPa 0,0 l/m 0 min 0 min 0 W/m 12,9 km/h (3 Bft) 97,83 %
01.11.2022 22:34 12,5 C 11,7 C 8,3 C 80 % 1017,1 hPa 0,0 l/m 0 min 0 min 0 W/m 12,9 km/h (3 Bft) 97,87 %
01.11.2022 22:36 12,5 C 11,7 C 8,3 C 80 % 1017,0 hPa 0,0 l/m 0 min 0 min 0 W/m 12,9 km/h (3 Bft) 95,74 %
01.11.2022 22:38 12,5 C 11,7 C 8,3 C 80 % 1017,0 hPa 0,0 l/m 0 min 0 min 0 W/m 19,3 km/h (3 Bft) 95,74 %
01.11.2022 22:40 12,6 C 11,7 C 8,3 C 80 % 1017,0 hPa 0,0 l/m 0 min 0 min 0 W/m 16,1 km/h (3 Bft) 97,87 %
01.11.2022 22:42 12,6 C 11,7 C 8,3 C 80 % 1017,0 hPa 0,0 l/m 0 min 0 min 0 W/m 19,3 km/h (3 Bft) 95,74 %
01.11.2022 22:44 12,6 C 11,7 C 8,3 C 80 % 1016,9 hPa 0,0 l/m 0 min 0 min 0 W/m 16,1 km/h (3 Bft) 97,83 %
01.11.2022 22:46 12,6 C 11,7 C 8,3 C 80 % 1016,9 hPa 0,0 l/m 0 min 0 min 0 W/m 19,3 km/h (3 Bft) 95,74 %
01.11.2022 22:48 12,6 C 11,7 C 8,3 C 80 % 1016,8 hPa 0,0 l/m 0 min 0 min 0 W/m 16,1 km/h (3 Bft) 97,87 %
01.11.2022 22:50 12,6 C 11,7 C 8,3 C 80 % 1016,9 hPa 0,0 l/m 0 min 0 min 0 W/m 16,1 km/h (3 Bft) 95,74 %
01.11.2022 22:52 12,6 C 11,7 C 8,3 C 80 % 1016,9 hPa 0,0 l/m 0 min 0 min 0 W/m 22,5 km/h (4 Bft) 97,87 %
01.11.2022 22:54 12,6 C 11,7 C 8,3 C 80 % 1017,0 hPa 0,0 l/m 0 min 0 min 0 W/m 12,9 km/h (3 Bft) 97,87 %
01.11.2022 22:56 12,6 C 11,7 C 8,3 C 80 % 1017,0 hPa 0,0 l/m 0 min 0 min 0 W/m 19,3 km/h (3 Bft) 97,83 %
01.11.2022 22:58 12,6 C 11,7 C 8,3 C 80 % 1016,9 hPa 0,0 l/m 0 min 0 min 0 W/m 19,3 km/h (3 Bft) 97,87 %
01.11.2022 23:00 12,6 C 11,7 C 8,3 C 80 % 1016,9 hPa 0,0 l/m 0 min 0 min 0 W/m 12,9 km/h (3 Bft) 95,74 %
01.11.2022 23:02 12,6 C 11,7 C 8,3 C 80 % 1016,9 hPa 0,0 l/m 0 min 0 min 0 W/m 16,1 km/h (3 Bft) 97,87 %
01.11.2022 23:04 12,6 C 11,7 C 8,3 C 80 % 1016,8 hPa 0,0 l/m 0 min 0 min 0 W/m 12,9 km/h (3 Bft) 97,87 %
01.11.2022 23:06 12,6 C 11,7 C 8,3 C 80 % 1016,8 hPa 0,0 l/m 0 min 0 min 0 W/m 12,9 km/h (3 Bft) 95,74 %
01.11.2022 23:08 12,6 C 11,7 C 8,3 C 80 % 1016,8 hPa 0,0 l/m 0 min 0 min 0 W/m 12,9 km/h (3 Bft) 95,65 %
01.11.2022 23:10 12,6 C 11,7 C 8,3 C 80 % 1016,8 hPa 0,0 l/m 0 min 0 min 0 W/m 12,9 km/h (3 Bft) 100,00 %
01.11.2022 23:12 12,6 C 11,7 C 8,3 C 80 % 1016,7 hPa 0,0 l/m 0 min 0 min 0 W/m 12,9 km/h (3 Bft) 100,00 %
01.11.2022 23:14 12,6 C 11,7 C 8,3 C 80 % 1016,8 hPa 0,0 l/m 0 min 0 min 0 W/m 16,1 km/h (3 Bft) 97,87 %
01.11.2022 23:16 12,6 C 11,7 C 8,3 C 80 % 1016,8 hPa 0,0 l/m 0 min 0 min 0 W/m 6,4 km/h (2 Bft) 97,87 %
01.11.2022 23:18 12,6 C 11,7 C 8,3 C 80 % 1016,8 hPa 0,0 l/m 0 min 0 min 0 W/m 12,9 km/h (3 Bft) 100,00 %
01.11.2022 23:20 12,6 C 11,7 C 8,3 C 80 % 1016,7 hPa 0,0 l/m 0 min 0 min 0 W/m 9,7 km/h (2 Bft) 100,00 %
01.11.2022 23:22 12,6 C 11,7 C 8,3 C 81 % 1016,7 hPa 0,0 l/m 0 min 0 min 0 W/m 9,7 km/h (2 Bft) 100,00 %
01.11.2022 23:24 12,6 C 11,7 C 8,3 C 81 % 1016,7 hPa 0,0 l/m 0 min 0 min 0 W/m 6,4 km/h (2 Bft) 97,87 %
01.11.2022 23:26 12,6 C 11,7 C 8,3 C 81 % 1016,7 hPa 0,0 l/m 0 min 0 min 0 W/m 12,9 km/h (3 Bft) 100,00 %
01.11.2022 23:28 12,6 C 11,7 C 8,3 C 81 % 1016,6 hPa 0,0 l/m 0 min 0 min 0 W/m 6,4 km/h (2 Bft) 100,00 %
01.11.2022 23:30 12,6 C 11,7 C 8,3 C 81 % 1016,6 hPa 0,0 l/m 0 min 0 min 0 W/m 9,7 km/h (2 Bft) 97,87 %
01.11.2022 23:32 12,6 C 12,2 C 8,3 C 81 % 1016,6 hPa 0,0 l/m 0 min 0 min 0 W/m 22,5 km/h (4 Bft) 100,00 %
01.11.2022 23:34 12,7 C 12,2 C 8,3 C 81 % 1016,6 hPa 0,0 l/m 0 min 0 min 0 W/m 16,1 km/h (3 Bft) 97,87 %
01.11.2022 23:36 12,7 C 12,2 C 8,9 C 81 % 1016,5 hPa 0,0 l/m 0 min 0 min 0 W/m 19,3 km/h (3 Bft) 100,00 %
01.11.2022 23:38 12,8 C 12,8 C 8,9 C 80 % 1016,5 hPa 0,0 l/m 0 min 0 min 0 W/m 12,9 km/h (3 Bft) 100,00 %
01.11.2022 23:40 12,9 C 12,8 C 8,9 C 80 % 1016,6 hPa 0,0 l/m 0 min 0 min 0 W/m 19,3 km/h (3 Bft) 97,87 %
01.11.2022 23:42 13,1 C 12,8 C 8,9 C 80 % 1016,6 hPa 0,0 l/m 0 min 0 min 0 W/m 25,7 km/h (4 Bft) 97,87 %
01.11.2022 23:44 13,2 C 12,8 C 8,9 C 79 % 1016,5 hPa 0,0 l/m 0 min 0 min 0 W/m 25,7 km/h (4 Bft) 97,83 %
01.11.2022 23:46 13,3 C 12,8 C 8,9 C 79 % 1016,5 hPa 0,0 l/m 0 min 0 min 0 W/m 35,4 km/h (5 Bft) 97,37 %
01.11.2022 23:48 13,4 C 12,8 C 9,4 C 79 % 1016,5 hPa 0,0 l/m 0 min 0 min 0 W/m 32,2 km/h (5 Bft) 97,87 %
01.11.2022 23:50 13,4 C 12,8 C 9,4 C 78 % 1016,5 hPa 0,0 l/m 0 min 0 min 0 W/m 25,7 km/h (4 Bft) 97,87 %
01.11.2022 23:52 13,5 C 12,8 C 9,4 C 78 % 1016,5 hPa 0,0 l/m 0 min 0 min 0 W/m 22,5 km/h (4 Bft) 97,87 %
01.11.2022 23:54 13,6 C 12,8 C 9,4 C 78 % 1016,5 hPa 0,0 l/m 0 min 0 min 0 W/m 25,7 km/h (4 Bft) 95,74 %
01.11.2022 23:56 13,6 C 12,8 C 9,4 C 78 % 1016,5 hPa 0,0 l/m 0 min 0 min 0 W/m 29,0 km/h (5 Bft) 97,87 %
01.11.2022 23:58 13,7 C 12,8 C 9,4 C 77 % 1016,4 hPa 0,0 l/m 0 min 0 min 0 W/m 12,9 km/h (3 Bft) 97,83 %
_ Min-Zeit 21:34 21:28 21:20 13:12 03:40 - - - - 18:58 04:10
Minimum _ 12,3 C 11,1 C 7,8 C 66 % 1010,0 hPa - - - - 0,0 km/h (0 Bft) 55,56 %
_ Max-Zeit 05:58 10:12 04:20 01:30 18:12 00:00 09:30 00:28 13:08 11:12 00:02
Maximum _ 17,1 C 21,7 C 12,2 C 89 % 1017,3 hPa 0,0 l/m 2 min 2 min 412 W/m 54,7 km/h
S-SW (7 Bft)
100,00 %
Durchschnitt _ 15,0 C 14,5 C 10,4 C 77 % 1014,9 hPa #0,0 l/m #3:42 h #24 min. 143 W/m 19,8 km/h (4 Bft) 97,37 %
© 2022 W. Hausmann